GFSWCAN_925_spd_000.txt.gz
Wind_Speed
8 6 13 17 18 14 13 12 10 8 6 4 2 1 2 2 2 2 4 3 2 3 3 2 4 5 4 4 5 6 5 2 2 3 3 3 2 3 3 2 3 3 2 4 3 4 6 2 2 2 5 5 1 3
9 6 2 11 17 18 15 14 12 10 7 6 4 2 1 2 1 3 2 4 7 5 3 3 2 2 2 4 5 5 1 5 4 4 2 3 3 1 1 4 4 5 6 4 7 6 4 6 8 4 1 4 6 2
14 8 1 1 14 18 18 16 14 12 10 7 6 4 2 2 2 2 4 6 4 3 3 3 3 2 5 4 5 4 1 3 4 3 4 2 3 5 4 6 5 5 6 4 6 10 11 11 5 4 1 1 2 5
10 12 9 3 6 16 22 20 17 14 12 10 8 7 4 2 2 3 4 5 5 6 4 2 1 2 4 5 3 3 11 9 8 2 3 3 3 7 4 6 8 8 6 10 11 13 11 4 1 3 3 3 5 6
10 9 11 8 4 7 20 23 22 18 15 12 10 9 7 5 3 4 5 4 4 0 3 2 1 1 1 3 7 10 17 7 3 3 3 4 3 3 2 1 8 10 15 5 4 4 6 5 3 8 6 7 4 4
7 10 8 9 8 5 11 25 24 22 19 15 12 11 9 7 5 3 1 4 3 4 3 2 2 1 3 3 7 9 9 3 3 4 3 3 3 5 3 3 8 9 8 6 5 5 6 3 2 5 3 2 5 8
6 8 9 9 8 6 5 18 26 24 23 18 14 11 9 7 8 2 0 1 8 5 3 1 2 2 2 3 2 2 2 1 3 3 3 3 4 4 3 5 6 3 2 3 4 4 2 5 2 2 3 5 9 14
5 7 9 8 6 7 5 7 25 25 25 21 17 13 11 11 7 4 4 5 10 6 3 3 2 1 3 2 2 0 2 2 2 1 1 2 2 1 4 6 3 3 2 3 3 2 1 6 3 3 7 10 12 13
5 5 7 9 7 7 8 4 10 29 26 26 22 18 11 7 6 5 10 10 6 1 3 2 6 4 4 2 2 2 1 2 2 1 1 2 3 5 4 4 3 2 3 6 7 6 4 1 4 6 9 11 13 14
5 6 7 8 6 6 5 7 3 15 25 30 23 7 1 6 14 16 4 1 2 2 1 2 2 3 3 2 2 3 0 2 3 2 1 2 2 1 3 3 2 3 8 9 6 4 2 4 7 9 10 12 13 16
5 5 6 7 8 8 2 7 2 10 26 10 3 2 6 18 4 3 2 3 2 1 2 2 2 3 3 2 2 2 2 1 2 2 2 3 3 5 6 8 7 6 7 4 4 2 2 6 8 9 11 14 14 16
4 5 6 6 7 7 4 9 16 7 7 8 14 11 5 2 2 3 4 3 3 4 3 3 2 2 1 1 2 1 2 2 2 2 2 3 3 8 10 10 7 7 7 3 1 4 7 8 9 11 13 15 16 19
4 3 6 4 4 4 7 10 12 19 16 7 6 3 2 1 3 5 6 3 4 4 4 3 3 2 2 2 3 2 4 3 1 3 3 2 7 8 8 7 7 7 2 3 6 8 11 12 12 12 14 19 19 19
7 6 6 4 3 0 11 7 13 6 5 2 1 4 1 3 2 2 2 3 3 3 5 4 3 2 0 2 1 3 2 2 3 4 5 4 9 9 7 5 5 2 2 6 10 12 11 14 15 19 19 20 19 18
8 7 7 6 3 4 11 6 5 3 2 2 1 2 2 2 2 2 1 2 2 4 3 4 3 0 2 3 1 3 4 4 4 3 1 5 7 6 6 5 2 3 7 9 12 12 14 16 16 17 19 18 16 22
4 6 13 10 9 8 7 3 5 1 3 2 2 3 2 2 1 1 2 3 2 3 2 2 2 3 2 3 4 4 3 5 1 1 3 5 5 4 5 4 6 10 12 14 14 13 14 16 15 16 20 23 22 20
5 4 11 14 10 9 2 4 4 4 3 1 2 3 2 2 2 2 1 2 6 2 2 2 5 2 4 2 3 3 4 0 3 3 2 2 3 6 6 7 11 12 13 14 14 13 14 16 15 14 15 19 16 16
8 9 17 17 12 6 4 4 3 3 4 2 2 2 2 2 2 2 2 2 2 2 3 2 4 3 4 4 3 2 3 1 3 2 1 1 5 10 12 14 16 16 15 14 15 15 13 13 11 13 15 17 18 17
10 14 20 20 11 5 2 3 2 2 2 2 3 2 2 2 3 2 1 1 2 2 4 2 2 3 2 3 2 2 2 2 2 4 5 9 11 12 13 15 16 16 15 15 14 14 14 13 14 14 15 15 16 18
13 14 26 19 10 3 3 2 2 2 2 2 2 3 2 2 1 1 1 1 2 1 1 2 3 2 3 2 3 2 2 2 3 6 7 6 10 11 13 14 15 15 15 16 15 13 11 11 12 13 15 16 18 18
17 14 19 18 6 8 3 1 2 2 3 2 2 1 2 1 1 1 1 1 0 2 2 4 3 4 5 2 3 4 6 8 6 6 7 7 10 11 14 15 15 14 13 13 11 12 10 11 13 13 14 16 17 20
9 12 7 6 4 3 3 4 2 2 1 3 3 0 2 2 1 1 1 3 3 3 4 4 5 4 4 5 8 9 11 9 10 12 15 14 6 8 10 12 11 12 13 14 13 12 11 11 11 12 14 17 19 20
15 7 5 3 3 3 2 2 1 2 2 3 2 2 2 2 1 2 2 3 3 6 9 8 8 7 8 8 7 9 9 10 10 9 9 10 11 12 13 13 11 13 13 15 12 11 11 12 13 14 16 18 16 17
7 5 3 3 3 3 1 2 2 3 2 1 2 2 2 1 1 1 3 3 4 3 4 6 5 4 4 4 5 8 9 9 8 8 9 9 11 14 13 15 14 13 14 15 12 12 11 12 13 13 15 15 16 18
4 4 3 4 2 3 3 3 2 2 2 3 2 2 2 2 2 3 3 3 2 3 3 3 3 4 3 3 6 7 7 10 10 10 12 11 13 15 15 14 15 13 12 10 9 11 11 11 12 12 13 15 17 18
5 2 2 3 3 2 4 4 4 3 3 3 3 1 1 2 3 4 3 1 1 0 1 2 2 2 4 7 6 11 12 7 7 11 17 13 10 11 13 11 11 12 9 9 9 8 10 10 13 14 14 13 14 16
4 2 2 2 3 4 3 2 3 2 4 5 3 4 4 3 4 2 1 5 3 7 10 9 8 8 9 14 15 14 14 13 14 16 18 18 16 13 12 13 13 8 7 8 8 7 9 12 13 13 13 14 12 11
3 3 5 5 2 0 4 4 6 7 4 4 5 5 4 5 2 2 4 8 11 11 9 9 9 10 12 13 15 14 13 15 18 18 18 18 16 10 6 6 7 8 6 6 7 9 10 11 10 12 13 12 10 10
2 4 4 4 2 3 4 5 5 4 4 5 4 4 3 2 3 6 8 13 11 11 12 14 14 15 12 13 10 11 12 13 15 11 11 8 6 7 12 10 9 8 8 8 8 8 9 9 10 9 8 8 7 7
2 3 2 3 4 4 1 4 1 1 3 1 1 2 3 4 6 8 10 13 14 13 11 10 11 12 13 14 14 10 11 13 13 12 7 6 10 12 12 12 12 12 11 10 10 10 8 8 7 5 6 5 7 7
2 3 2 2 3 1 1 2 2 2 2 2 1 3 2 4 5 11 16 12 12 11 13 14 13 13 13 13 14 12 10 12 15 13 11 9 10 11 13 14 14 13 12 11 9 8 7 4 5 5 6 7 8 8
0 1 1 2 1 1 2 1 1 2 1 2 1 2 3 3 3 4 13 12 13 15 14 13 12 12 12 9 9 9 8 10 13 15 15 14 14 14 14 14 13 12 10 9 7 5 5 5 5 6 6 7 8 8
0 0 0 2 2 2 2 2 2 3 1 1 2 2 3 3 3 3 5 10 8 11 13 14 13 9 8 7 9 11 12 12 15 17 17 15 14 13 12 12 11 10 8 6 5 4 5 6 6 7 7 7 8 8

GFSWCAN_925_spd_003.txt.gz
Wind_Speed
15 18 21 18 14 14 12 12 10 7 4 3 2 1 1 2 2 4 1 3 2 3 5 2 3 7 4 7 5 9 5 2 2 2 3 3 1 3 3 2 4 6 6 4 3 4 6 3 4 2 8 11 4 3
15 13 11 16 15 14 12 11 10 8 5 3 2 1 1 1 1 2 0 4 8 2 4 3 3 2 3 3 4 9 0 6 6 3 3 2 2 0 1 3 4 4 6 4 8 6 7 7 9 11 6 6 3 5
16 11 8 5 13 18 15 13 11 9 7 5 3 2 1 1 1 2 1 2 3 3 3 4 4 3 3 3 2 4 2 3 5 3 4 3 3 5 5 6 7 7 11 6 7 7 14 7 12 3 4 2 5 8
15 13 9 6 3 12 18 17 13 11 10 7 5 4 3 1 0 2 1 2 2 5 4 3 2 4 1 2 2 0 11 6 9 4 3 3 3 8 5 7 7 8 8 10 14 16 14 13 4 0 5 6 6 9
13 10 10 10 4 2 14 19 17 14 12 9 7 6 5 3 2 3 2 1 1 3 3 3 3 1 1 3 5 6 13 7 3 3 2 3 3 3 2 2 8 10 14 10 11 7 4 7 12 13 11 6 5 6
11 11 11 9 8 2 4 17 21 19 15 12 9 7 6 5 4 2 3 2 2 1 3 3 2 4 3 5 8 9 10 5 4 4 3 4 6 5 5 4 7 6 9 8 7 1 2 5 8 10 6 4 4 7
8 10 11 11 8 8 2 7 21 22 19 15 10 7 6 6 2 3 1 1 5 1 2 2 3 2 2 6 3 4 2 3 4 3 4 4 5 4 4 7 8 8 7 3 2 1 1 5 6 2 3 4 5 11
6 7 10 11 10 8 7 1 11 24 22 17 12 10 9 8 4 5 0 3 6 3 2 3 2 2 6 3 3 2 2 2 4 2 2 3 2 1 4 10 12 9 6 5 2 3 11 1 2 3 4 7 10 12
5 5 7 10 9 8 7 6 3 19 22 20 16 14 9 7 5 3 6 4 2 1 2 3 6 4 6 2 2 2 2 2 1 2 2 3 4 6 9 10 8 7 6 5 6 4 4 2 2 4 6 9 12 13
6 5 7 10 9 9 6 6 4 6 23 23 18 7 2 6 11 14 3 2 2 2 1 4 3 4 5 3 3 3 1 2 3 2 2 3 3 9 4 3 4 5 6 5 7 6 3 3 5 7 9 12 14 15
6 5 8 10 11 12 4 8 1 5 12 8 3 1 3 19 4 1 3 3 2 2 3 3 5 5 2 3 4 0 2 2 3 3 3 3 3 10 10 8 6 6 7 6 3 4 1 3 6 8 10 12 13 14
7 4 7 8 9 8 9 9 10 5 7 8 9 6 6 2 2 4 3 2 4 5 3 3 2 2 3 1 3 2 3 2 3 6 2 3 3 8 10 11 9 9 9 7 3 1 4 7 9 10 11 14 15 15
5 3 5 6 7 6 13 16 19 16 14 8 6 3 2 1 2 5 8 3 4 4 3 3 3 2 2 2 2 3 5 3 1 3 3 3 9 8 10 10 9 10 8 2 2 5 9 11 11 10 13 16 18 17
3 1 2 4 7 3 11 11 13 8 6 2 2 3 2 2 3 2 3 2 2 3 5 4 3 2 1 2 2 3 2 2 4 3 4 3 7 9 8 6 8 8 6 1 6 10 10 11 13 15 17 20 20 19
2 3 3 2 4 8 9 10 8 6 3 2 1 3 3 2 3 3 3 2 2 3 2 4 3 2 2 2 1 3 3 3 3 1 3 4 7 8 8 7 6 2 3 5 10 12 13 15 15 15 15 17 14 20
1 1 4 4 2 7 7 7 3 3 3 2 2 2 1 1 1 2 3 2 3 2 2 2 2 2 2 1 3 3 3 4 2 2 2 6 6 5 5 5 5 4 7 12 14 15 14 14 16 16 17 19 22 19
0 2 3 8 6 4 3 2 1 3 3 2 2 2 2 2 3 2 0 2 2 1 1 1 2 2 2 2 2 1 2 2 4 4 3 5 3 2 5 7 6 8 11 13 14 14 14 14 15 15 15 17 14 15
4 4 7 10 7 3 3 6 2 1 3 2 2 3 1 1 3 2 1 2 2 1 1 1 2 3 3 2 2 1 2 3 3 3 3 2 2 6 9 12 14 15 15 15 14 14 14 15 13 14 16 17 16 17
5 6 9 13 6 4 2 2 2 2 2 2 2 2 2 3 3 3 2 2 2 1 3 1 1 2 2 2 1 2 3 2 2 2 3 7 9 10 10 13 13 14 15 15 15 15 17 18 18 17 16 16 18 17
10 6 8 15 6 3 2 1 2 1 3 3 2 3 2 2 2 1 1 0 2 2 2 3 2 1 1 1 2 1 2 2 3 6 7 7 8 8 11 12 13 14 15 16 16 17 16 16 16 15 15 16 14 18
15 8 10 15 1 5 2 2 2 2 3 2 2 3 2 2 2 1 1 0 1 2 2 4 3 4 3 2 2 2 5 7 6 6 7 7 11 12 13 14 14 13 13 13 12 15 17 16 17 15 12 13 16 18
6 17 6 4 3 2 2 2 2 2 1 3 4 2 2 2 2 2 1 3 3 4 4 4 5 4 4 5 7 8 8 8 10 12 12 13 8 9 9 10 11 11 14 14 16 16 17 17 17 13 14 16 17 17
17 6 3 2 3 1 3 0 2 1 2 3 2 3 2 2 1 1 2 2 3 5 8 7 5 5 6 6 5 8 8 10 11 12 10 9 9 10 12 13 14 13 14 18 17 18 18 16 14 14 16 17 17 16
9 4 2 2 2 4 3 2 1 3 2 3 3 2 2 1 1 1 2 2 4 2 2 3 4 3 5 4 3 3 8 10 11 10 9 10 12 15 16 16 17 15 16 18 15 17 18 18 17 16 16 17 14 14
3 3 0 4 2 4 4 4 3 2 3 3 3 2 2 2 2 3 3 1 2 3 4 3 0 1 1 2 5 8 11 9 12 13 16 18 19 18 18 19 18 18 18 15 15 15 16 15 14 14 13 14 14 14
4 2 1 3 3 2 4 4 4 4 3 4 3 2 2 3 3 4 2 4 3 6 6 6 6 4 5 10 9 13 14 14 16 16 19 20 19 18 15 13 15 19 18 14 14 14 14 13 11 12 15 14 12 11
4 3 3 3 3 4 4 2 3 3 4 4 4 5 4 4 4 2 4 8 3 7 8 8 8 8 9 12 13 14 14 15 14 17 23 24 23 21 21 18 16 12 11 14 15 15 13 11 11 14 13 11 11 10
3 3 4 4 2 1 3 3 5 5 4 4 5 5 3 3 1 3 4 6 7 8 6 6 7 9 11 11 13 13 14 16 17 17 16 13 7 11 14 14 14 16 13 11 11 12 11 12 12 11 11 12 10 5
3 3 4 3 2 1 1 3 3 3 2 4 3 3 2 3 3 4 5 8 8 8 8 10 11 12 10 11 9 8 11 14 17 13 13 8 13 16 20 18 17 16 15 14 13 12 12 10 10 10 9 8 5 5
2 1 2 2 2 2 1 1 1 2 2 1 1 3 3 4 6 6 7 9 10 10 9 9 9 11 11 12 11 9 9 12 13 13 9 9 16 19 19 19 18 18 17 15 15 14 11 9 8 6 6 6 7 5
1 1 2 1 1 1 2 2 1 1 1 2 1 3 3 4 5 9 11 9 8 8 9 9 8 10 10 11 12 12 11 10 14 13 14 14 15 16 18 19 18 18 16 15 14 12 11 9 6 5 5 5 6 7
0 0 1 2 1 2 1 1 1 2 3 3 3 2 3 3 2 3 7 8 7 8 9 9 10 11 10 9 9 8 10 12 13 15 16 17 17 17 18 17 17 16 15 14 11 9 9 7 6 6 4 6 6 7
1 2 2 2 2 2 1 3 2 2 3 1 2 2 3 4 3 3 2 6 6 7 10 11 12 12 10 9 9 10 12 14 15 16 17 18 17 18 17 14 16 15 13 11 9 8 7 7 6 6 6 6 6 7

GFSWCAN_925_spd_006.txt.gz
Wind_Speed
31 28 24 20 18 17 15 13 10 7 5 3 2 3 5 5 5 6 2 6 3 3 3 5 1 8 5 7 5 8 4 1 2 3 3 3 2 4 1 4 6 7 6 4 4 4 6 2 1 2 6 8 3 3
20 28 24 21 18 15 13 11 9 6 5 3 2 2 4 5 5 3 1 6 8 2 4 5 5 6 5 8 5 8 3 7 5 3 2 1 2 2 2 3 7 4 6 4 9 5 8 1 5 7 3 5 4 5
20 21 21 20 16 15 13 11 9 6 4 3 2 1 2 4 4 3 4 3 3 2 3 3 3 3 3 5 6 4 1 4 6 3 4 3 3 4 4 4 3 4 8 3 4 8 9 6 4 10 5 1 4 3
19 18 17 14 13 14 13 12 10 7 5 4 2 1 1 3 3 4 3 2 2 5 4 3 2 2 1 1 2 1 7 7 7 4 3 3 3 8 5 6 4 5 4 6 7 11 10 3 7 6 5 4 2 5
20 17 15 12 8 7 14 15 13 10 8 5 3 2 1 1 2 4 1 2 2 3 3 1 1 2 2 4 5 6 12 7 3 3 2 4 3 1 3 1 4 5 9 7 8 4 3 4 4 1 2 2 4 3
18 19 15 13 10 5 5 15 16 14 10 7 4 2 2 1 1 1 3 2 2 4 3 2 2 3 3 5 7 8 9 4 4 5 3 3 6 3 2 3 8 11 7 6 7 4 3 3 4 1 3 4 4 4
17 17 17 13 12 10 4 5 17 16 13 9 5 3 2 1 2 2 1 2 2 3 2 1 2 1 3 6 4 3 2 1 2 2 3 3 2 3 3 5 7 8 9 7 5 5 3 2 2 5 4 1 3 5
13 14 15 13 12 10 10 3 8 18 16 12 8 4 3 2 1 2 2 2 3 1 2 2 2 1 4 1 2 4 2 2 1 1 2 2 2 2 4 9 10 13 11 8 6 2 4 1 6 4 4 1 5 7
12 11 12 12 11 10 8 8 2 13 16 13 9 6 2 2 4 2 3 2 1 2 2 2 6 4 5 2 2 2 1 1 1 1 2 2 3 6 7 8 10 10 6 8 6 6 6 3 2 2 2 4 7 8
13 12 13 13 13 9 5 6 3 5 19 16 11 4 1 3 6 8 2 1 2 2 2 3 3 3 5 1 1 2 2 2 2 2 2 2 5 11 11 5 4 8 7 6 7 6 4 3 0 3 4 7 9 9
12 12 13 14 15 11 10 8 4 8 12 5 3 1 1 9 4 1 2 2 2 3 3 3 6 5 3 3 2 0 3 2 3 2 4 3 3 7 13 7 4 5 7 6 7 8 8 3 2 4 4 6 6 7
11 12 12 13 12 12 10 9 6 5 5 6 10 7 3 3 1 4 4 1 4 5 3 3 2 3 2 1 3 3 3 2 5 6 2 3 3 6 10 10 7 8 12 11 10 7 5 3 5 5 5 7 9 10
8 8 10 9 9 12 16 16 18 18 10 7 6 4 3 2 2 2 4 2 2 1 1 1 3 2 2 2 3 2 6 5 1 3 3 1 7 7 10 8 9 14 15 9 7 5 5 6 7 9 10 13 15 15
4 6 8 10 7 9 9 7 8 5 6 3 2 3 2 2 2 2 2 2 2 1 2 3 3 2 1 2 2 3 1 2 3 3 3 4 6 8 8 6 9 9 9 6 4 3 5 7 11 12 14 16 16 18
4 3 5 7 7 6 4 4 3 7 3 2 0 2 2 1 1 1 1 1 3 1 2 2 2 2 2 3 0 3 4 3 2 1 2 4 7 9 7 7 8 6 5 2 3 7 10 12 13 15 15 16 17 18
4 4 3 1 4 6 7 5 5 4 3 2 2 2 1 0 2 2 2 1 0 1 0 2 2 1 2 2 2 1 2 0 2 2 3 5 6 6 4 4 5 2 2 4 7 10 12 13 15 16 16 17 23 23
3 3 0 4 5 6 5 4 3 2 2 1 2 1 1 2 2 0 1 1 2 2 2 1 2 4 1 0 1 2 2 1 3 1 4 5 5 3 1 1 4 4 6 9 12 13 14 15 15 16 15 20 19 19
1 4 1 6 5 3 3 4 1 1 1 2 2 3 1 2 1 1 1 1 0 1 1 1 3 1 1 1 2 2 2 2 2 2 3 3 2 3 5 7 8 8 10 12 13 15 15 16 15 16 19 20 15 13
6 5 1 8 2 3 2 2 3 1 2 2 2 2 2 2 2 4 2 3 2 2 2 1 1 2 1 1 1 1 2 2 2 2 1 2 5 5 5 8 10 12 13 14 15 14 14 15 17 19 19 17 15 16
7 5 4 10 4 3 1 2 2 0 1 2 2 2 2 2 1 1 1 1 1 1 1 1 1 1 1 1 1 3 2 1 1 2 3 3 7 5 8 10 10 12 14 15 15 15 15 15 16 17 19 18 15 11
6 8 2 8 2 2 1 3 2 1 2 2 1 2 2 1 1 0 1 1 1 1 2 4 1 1 2 3 4 3 2 1 2 2 3 4 6 9 10 13 14 13 12 11 11 13 16 16 19 19 20 15 9 10
3 10 4 3 2 3 1 1 1 2 2 2 2 2 2 2 2 1 1 1 2 4 3 2 3 2 2 4 4 4 3 4 5 7 10 11 4 6 8 10 9 10 11 14 15 16 18 19 19 21 19 19 17 17
8 8 3 2 2 2 3 1 2 4 3 4 2 3 2 2 1 2 2 3 3 3 5 4 1 3 3 3 2 3 4 4 6 6 8 9 10 11 12 13 16 16 15 17 19 18 19 17 15 18 18 18 16 16
7 0 3 3 2 3 3 3 2 3 3 4 4 3 3 2 2 2 2 2 1 3 1 1 2 3 5 2 3 4 9 8 9 9 11 12 12 14 17 18 19 20 21 21 20 20 16 19 20 18 17 15 15 14
3 3 3 3 2 4 4 5 3 3 3 4 4 3 3 3 3 3 2 2 6 6 5 10 4 1 2 3 4 10 17 17 13 11 14 16 17 18 17 17 18 18 22 24 22 18 15 15 14 15 15 13 12 16
3 2 2 3 2 3 4 4 5 5 4 4 3 3 2 3 3 3 2 4 5 5 6 7 6 5 5 11 9 11 14 16 16 14 15 18 19 18 17 14 14 14 18 22 22 19 18 18 16 15 11 12 15 13
3 2 2 2 1 4 3 2 3 3 4 4 4 5 3 3 4 3 4 8 4 7 7 8 8 8 8 10 10 11 12 13 13 16 19 19 11 13 15 14 15 17 21 19 19 19 19 18 15 13 13 14 10 13
2 2 3 2 2 1 3 3 3 3 3 3 6 4 3 3 2 2 3 6 5 5 5 8 9 8 8 9 9 8 11 14 15 13 13 5 9 17 23 21 21 22 22 21 21 20 20 18 17 14 13 12 11 4
3 2 2 3 2 2 1 2 2 1 2 3 3 3 3 3 4 5 6 6 6 6 7 8 9 9 9 9 9 7 9 12 15 11 11 7 12 17 25 23 24 24 23 24 22 21 21 19 16 13 12 7 8 8
2 3 2 2 1 2 3 5 2 3 3 3 2 3 3 4 6 6 6 7 8 8 7 7 7 9 9 9 10 11 8 10 12 12 9 9 16 23 24 23 25 24 24 23 23 22 19 19 15 6 8 9 10 9
1 1 2 2 2 3 3 2 1 1 1 1 2 2 4 4 5 7 8 7 6 7 7 8 8 8 10 10 10 11 10 9 14 12 13 15 18 21 22 24 23 22 22 21 21 19 17 15 11 9 9 10 11 10
2 4 3 1 2 2 1 1 1 1 1 1 2 3 4 4 3 3 5 7 5 6 7 8 8 10 10 10 9 8 10 13 13 15 17 16 19 21 22 23 21 20 20 19 17 14 12 11 8 8 9 10 10 10
1 2 2 2 1 1 1 3 2 1 2 1 3 3 4 4 4 3 3 5 4 4 6 7 9 11 12 6 10 11 10 13 17 17 17 19 21 23 23 21 18 19 20 16 14 10 9 8 7 8 8 8 8 8

GFSWCAN_925_spd_009.txt.gz
Wind_Speed
34 30 26 24 22 20 18 15 12 10 8 6 6 6 7 8 7 7 7 8 3 3 3 7 7 4 4 5 5 5 4 4 3 3 3 3 2 4 2 6 6 7 6 4 3 2 7 6 4 7 5 4 6 5
32 30 27 24 22 19 17 14 11 9 7 6 5 6 7 7 6 6 5 8 8 5 3 5 7 9 7 2 5 4 7 4 5 4 1 3 1 0 2 3 4 2 7 6 9 7 7 6 7 5 6 5 4 5
32 29 27 24 21 19 16 14 11 9 7 5 5 5 6 7 7 9 6 7 5 3 4 4 3 7 5 11 8 5 2 5 4 4 3 3 3 3 4 5 1 3 6 3 4 6 6 7 4 5 6 8 7 6
28 29 27 23 21 18 16 14 12 9 7 5 4 4 5 7 8 9 6 6 5 6 4 4 2 3 3 5 5 4 8 10 8 4 3 3 3 5 4 4 4 5 2 1 3 3 5 6 7 7 7 5 6 7
26 24 20 18 17 16 15 14 13 10 8 5 4 4 4 5 7 9 8 7 5 4 4 2 1 3 2 3 5 7 17 6 3 3 3 4 2 2 1 2 3 4 5 3 5 4 4 4 6 6 5 6 6 5
23 20 20 16 12 13 15 15 13 11 8 6 5 4 4 4 4 4 2 2 4 4 4 1 1 1 1 1 3 6 4 3 3 4 3 3 4 4 3 3 5 7 7 6 4 4 7 8 6 7 4 6 11 8
24 22 18 16 14 9 8 13 15 13 10 7 5 4 4 4 5 5 3 1 3 4 3 2 2 4 4 1 5 4 5 2 3 3 1 3 2 4 3 4 6 7 7 6 10 10 5 6 4 8 11 11 7 6
20 19 17 16 14 13 8 7 14 15 13 9 6 5 5 6 5 2 4 3 3 5 5 3 2 4 2 2 2 4 2 3 3 1 1 2 3 2 3 6 8 10 8 9 8 6 5 10 7 9 9 10 7 6
18 18 17 15 13 10 9 6 8 17 14 10 8 5 4 3 2 2 2 3 1 2 3 2 5 4 2 2 2 3 2 2 2 0 1 1 2 5 7 7 7 7 7 11 8 8 6 9 9 8 7 7 7 5
19 18 17 16 13 10 7 6 7 15 15 12 7 3 2 0 2 4 1 3 4 3 2 2 3 2 3 1 1 2 2 2 2 3 1 2 4 4 5 2 3 6 11 13 10 7 7 8 9 7 7 8 7 2
18 18 18 17 14 11 11 11 13 17 15 5 3 1 2 5 2 3 1 2 1 2 2 3 5 4 2 3 3 1 2 1 2 4 5 3 3 4 7 5 6 6 9 10 15 15 12 11 7 7 5 3 1 4
17 18 17 17 19 17 14 10 8 6 5 7 11 7 4 4 3 2 3 1 2 3 3 1 1 2 1 1 3 1 3 2 5 3 2 3 3 4 8 8 8 14 19 17 18 13 16 16 12 7 2 5 7 7
14 15 15 12 15 17 19 20 18 16 11 6 6 4 2 3 2 3 5 1 1 2 2 2 2 2 1 3 2 3 5 5 2 3 3 3 1 5 10 10 13 19 21 18 15 16 13 8 4 3 6 8 9 10
11 12 13 11 9 11 13 13 12 6 5 3 2 3 2 2 2 1 1 0 1 1 1 1 2 1 1 2 2 4 1 2 3 3 4 0 7 8 8 7 11 8 12 10 9 7 2 3 6 7 9 11 11 12
8 9 11 13 8 6 6 5 8 7 4 2 2 3 2 1 0 0 0 0 2 1 2 2 2 1 1 2 1 3 1 2 1 1 2 2 4 5 6 6 7 7 7 5 3 1 4 6 8 10 11 11 12 16
8 7 9 7 7 7 7 6 7 3 3 3 2 3 1 1 1 1 1 1 1 1 1 1 1 2 2 1 1 0 3 1 2 1 2 3 4 4 4 5 6 7 7 3 4 6 6 8 10 13 14 14 18 21
8 5 5 4 5 6 5 4 5 4 3 2 2 1 1 2 3 1 1 1 2 1 1 1 3 1 0 1 1 2 2 2 3 2 2 4 4 3 4 4 1 3 5 7 8 9 10 11 11 13 15 21 20 21
8 6 4 3 4 6 4 5 3 2 2 2 1 2 2 2 2 1 1 1 2 1 1 1 3 1 0 0 1 2 2 0 2 3 2 2 4 3 1 2 4 4 6 9 12 13 14 14 14 17 19 19 19 20
9 8 3 3 3 2 2 3 2 2 1 2 2 2 2 2 3 3 1 2 1 1 2 2 2 1 0 1 1 1 1 2 2 2 2 4 4 6 6 5 5 7 9 11 13 15 17 17 18 19 22 23 22 26
2 5 8 1 3 2 2 0 0 2 1 2 2 2 2 2 1 1 1 1 1 1 1 0 2 2 2 1 1 2 2 2 3 2 2 2 4 6 4 8 11 13 13 15 15 14 14 15 18 21 23 22 16 15
1 2 3 7 3 4 2 2 0 1 2 2 2 2 2 1 1 0 1 1 1 0 2 2 2 2 8 8 7 6 5 3 1 3 2 1 6 11 14 14 15 16 16 16 13 17 18 19 23 25 21 16 15 17
2 0 2 1 2 2 2 3 1 1 2 2 1 2 2 2 2 1 0 0 2 3 3 1 1 1 2 1 1 2 2 2 2 4 6 8 2 4 7 11 13 12 18 20 21 20 23 25 22 17 13 18 17 16
2 1 0 1 1 2 3 4 1 3 3 3 1 2 1 1 1 0 1 2 3 2 4 6 6 7 7 6 3 4 5 3 4 9 16 18 17 18 20 20 19 18 16 17 19 21 21 23 21 19 19 14 15 15
3 1 2 2 3 2 1 1 1 1 3 2 3 3 3 2 2 2 2 2 0 10 8 10 6 2 4 7 10 13 17 16 16 17 22 17 13 14 18 19 21 22 20 20 19 19 20 22 23 18 15 16 17 17
3 4 3 3 1 4 3 4 2 2 3 3 3 2 1 2 2 2 3 1 2 5 5 14 14 12 6 4 11 14 19 20 14 11 15 16 18 17 16 16 15 11 23 21 20 20 20 21 20 20 21 22 21 12
5 4 4 5 3 3 4 4 5 4 3 2 2 3 2 2 2 3 2 2 2 4 5 6 5 3 7 13 7 12 13 17 16 9 10 15 15 9 11 10 11 14 25 22 21 21 22 22 22 22 19 18 19 18
4 4 2 1 2 1 1 1 2 3 3 4 3 4 3 3 4 2 2 6 3 9 8 8 10 11 8 8 10 7 10 13 11 11 13 6 14 17 18 15 15 18 24 23 25 24 23 23 22 23 22 17 18 19
2 2 3 2 0 0 2 2 1 2 2 1 4 3 6 4 2 2 3 7 8 7 11 12 9 7 8 8 6 7 11 13 13 12 8 7 14 15 24 22 20 24 23 22 24 24 25 26 25 23 22 19 10 8
2 1 2 3 2 1 1 2 2 1 3 3 4 1 3 3 5 4 6 8 7 9 10 10 10 8 9 11 13 10 12 16 20 8 6 4 13 18 27 25 26 29 27 25 26 24 24 24 25 27 15 8 7 9
1 2 2 1 1 1 2 3 2 3 4 2 4 3 3 3 8 10 10 9 9 9 9 10 10 11 12 12 12 12 10 14 17 11 4 5 15 22 25 27 26 30 26 25 29 27 22 23 21 12 10 10 9 10
2 1 1 1 2 2 2 3 2 1 2 2 4 4 3 3 4 7 10 8 8 8 11 12 12 13 12 12 13 10 9 7 12 10 14 17 17 20 25 28 30 24 23 27 27 22 23 18 15 10 10 11 11 10
2 3 3 1 2 2 1 0 0 1 2 1 2 3 4 3 3 2 6 8 9 10 8 8 9 11 12 10 6 10 6 7 12 17 16 16 18 21 26 27 22 21 23 26 23 21 15 12 11 9 8 9 9 9
0 0 0 1 2 1 2 2 2 1 1 2 3 2 2 3 3 3 3 4 3 3 4 5 6 6 11 10 9 6 11 16 12 13 15 16 18 23 22 21 21 20 19 22 18 14 13 11 10 9 8 8 9 8

GFSWCAN_925_spd_012.txt.gz
Wind_Speed
37 35 33 30 27 23 21 17 15 13 10 9 9 9 10 10 9 9 10 7 3 3 3 4 4 5 4 3 5 5 4 4 3 4 3 4 3 5 3 4 6 7 6 4 3 2 8 7 5 7 6 4 7 6
38 34 31 29 26 23 20 17 15 13 10 9 9 9 10 9 9 8 6 8 8 4 3 4 9 8 1 6 6 1 6 4 5 4 2 3 1 1 2 3 3 2 7 6 10 7 5 7 6 4 7 6 7 8
35 31 29 27 25 23 20 17 15 12 10 9 9 9 10 10 9 10 10 6 5 3 4 4 3 7 7 6 10 5 2 5 4 3 4 3 3 4 4 5 4 4 5 3 3 6 9 8 0 5 5 6 6 5
33 31 29 27 25 22 19 17 14 12 10 8 8 9 9 11 10 9 8 7 8 5 4 4 3 4 6 6 6 4 11 9 8 3 3 3 3 4 3 3 4 5 5 5 4 4 2 3 2 6 7 7 7 7
31 29 27 26 23 21 19 16 14 12 10 8 8 8 9 11 12 13 13 11 6 5 4 2 2 5 5 6 8 12 19 6 3 2 2 3 2 2 1 2 3 4 7 4 7 6 4 5 7 7 7 8 9 7
29 27 24 21 20 18 17 16 14 12 10 9 8 8 7 8 13 4 3 4 5 4 4 1 4 5 7 6 7 9 6 3 3 4 3 2 3 4 3 4 6 6 5 7 5 6 6 8 9 8 7 6 9 11
29 26 22 16 15 16 15 14 13 13 10 9 9 8 7 6 5 6 4 2 3 3 3 2 3 4 4 4 4 3 6 2 3 2 1 3 2 3 3 5 6 8 8 6 5 8 4 5 6 8 15 14 20 19
25 21 20 18 14 11 13 16 15 13 12 10 10 10 10 11 10 6 9 7 5 9 5 4 3 4 4 2 1 3 2 2 3 3 1 2 2 2 3 8 8 10 11 5 9 2 6 8 11 10 14 16 11 8
23 20 18 15 13 12 10 13 18 16 13 11 11 10 5 4 3 1 4 5 6 4 4 2 5 4 2 2 1 3 2 1 2 2 2 3 2 5 7 7 6 7 6 7 7 6 9 11 11 11 11 8 8 5
23 20 17 15 12 9 10 10 17 17 15 13 5 5 2 3 2 3 2 4 4 3 3 2 2 2 3 1 2 2 2 1 1 3 1 2 4 5 5 7 6 6 7 12 8 7 11 13 12 8 6 6 8 5
23 23 20 17 18 16 13 14 19 20 15 3 3 1 2 4 2 4 2 3 0 2 1 0 2 3 1 3 3 1 2 0 2 4 4 3 3 4 6 4 1 7 10 9 15 16 18 14 9 6 5 6 4 2
20 22 24 23 18 14 14 15 15 5 5 7 12 7 3 4 3 3 2 1 1 2 3 1 1 1 1 2 3 1 3 2 6 3 2 3 2 7 4 7 12 15 20 18 25 19 16 12 11 8 5 3 1 3
17 15 18 18 20 20 20 19 19 20 13 6 5 4 2 3 2 4 6 1 2 3 2 2 1 1 1 3 2 2 5 5 2 2 3 1 5 7 9 11 13 20 23 20 14 13 13 9 5 5 0 3 3 5
18 16 13 14 15 14 15 13 8 6 4 4 3 4 2 2 2 1 1 1 0 1 1 1 2 1 1 2 1 3 1 1 1 1 2 2 7 6 7 6 9 6 8 10 10 9 7 4 1 2 4 5 6 8
14 14 13 14 11 11 9 8 7 6 4 3 2 3 2 2 1 1 1 1 1 0 1 1 2 1 1 2 1 2 1 1 0 2 1 1 3 4 3 2 4 6 5 6 6 6 4 4 5 6 7 8 9 12
7 8 16 12 11 11 10 6 6 3 4 3 3 3 2 2 1 1 1 1 1 0 1 0 1 2 1 1 0 1 3 2 2 0 2 1 1 1 4 1 5 5 4 3 4 5 6 7 8 9 11 13 14 15
14 8 9 9 10 12 11 5 5 4 3 3 2 2 2 3 2 1 0 1 2 1 1 0 2 2 1 1 1 2 2 2 2 2 2 2 2 3 5 4 2 1 3 6 7 8 9 10 10 11 11 15 15 16
13 9 6 6 8 10 6 8 4 3 4 1 2 1 2 2 2 1 1 1 1 1 1 0 2 2 1 1 0 2 3 3 2 2 2 2 4 2 2 3 4 4 4 6 7 8 9 11 11 15 16 18 19 20
10 10 8 7 9 4 4 5 4 3 1 2 2 2 2 2 1 1 1 5 3 0 2 2 3 1 2 2 2 1 1 2 2 2 1 1 3 5 5 5 6 7 9 11 12 13 14 14 14 15 17 18 18 19
6 9 7 8 8 4 3 1 2 3 2 2 2 2 2 2 1 0 1 1 1 1 1 1 3 3 3 2 3 2 1 2 3 2 2 3 5 7 8 8 10 11 12 14 15 16 17 17 18 22 22 20 18 16
4 6 6 7 5 6 1 0 1 1 2 2 2 2 2 0 1 1 1 1 0 1 1 2 2 3 3 5 8 10 8 7 2 3 3 1 4 8 11 15 14 14 15 17 17 19 20 19 21 24 22 20 17 19
2 3 3 4 4 4 1 5 1 0 2 1 2 2 2 1 2 1 0 0 2 2 3 2 2 2 2 2 3 7 6 5 6 11 14 12 5 8 11 16 18 14 15 15 16 16 16 20 24 24 20 21 22 15
2 3 2 3 3 2 4 4 1 2 2 2 1 2 1 1 1 1 2 2 1 3 3 2 3 5 11 17 20 22 18 17 13 13 13 13 13 13 15 17 17 14 11 13 16 17 18 22 21 22 22 23 18 18
1 2 1 0 2 3 2 1 1 1 1 2 3 2 2 2 1 2 2 1 2 6 6 9 6 6 12 13 10 12 15 14 11 13 17 14 11 13 14 14 13 15 16 16 17 19 21 22 27 24 23 23 23 22
1 3 2 3 1 2 2 1 1 2 3 4 3 2 2 2 2 1 2 1 1 2 4 12 13 11 6 6 9 10 16 17 13 7 13 15 11 11 13 13 14 16 24 21 20 21 22 23 22 23 23 22 24 24
4 4 5 4 2 3 4 3 4 5 3 2 2 1 2 2 2 3 1 1 2 2 4 6 4 3 7 9 6 8 10 14 10 9 12 12 16 14 11 10 12 14 25 24 20 21 23 23 23 24 25 26 26 24
2 3 2 2 2 2 1 1 1 2 3 3 3 3 2 3 4 1 2 6 2 7 11 13 11 10 8 8 11 11 12 14 11 5 8 13 15 18 19 14 14 18 24 23 20 22 23 24 24 25 25 26 26 22
2 1 2 2 2 0 1 1 1 1 1 1 3 2 5 4 1 2 3 6 11 13 15 15 13 12 13 13 11 10 13 14 12 14 8 5 15 11 23 23 24 24 26 24 21 23 26 25 26 27 28 28 9 8
1 2 2 3 3 2 0 1 1 1 3 2 3 2 2 3 5 4 6 9 8 11 13 14 12 10 14 12 11 12 14 17 19 6 4 3 10 14 23 26 28 30 26 24 24 27 23 21 21 25 14 7 9 10
2 1 2 1 1 1 1 3 2 3 3 3 4 3 3 3 9 10 9 9 13 14 14 14 12 10 12 12 11 8 11 13 14 12 2 4 13 18 23 27 30 27 24 23 26 29 22 19 19 15 12 11 11 10
2 2 1 0 1 2 1 2 2 1 2 2 4 3 3 2 4 10 10 9 9 8 10 12 11 10 10 11 10 7 7 6 9 12 11 10 12 17 22 24 22 21 21 22 24 22 20 17 15 12 12 11 10 10
2 2 2 2 2 3 1 2 2 2 1 0 2 3 2 3 2 3 5 4 5 8 7 5 6 8 8 6 6 5 4 9 12 11 11 13 14 19 20 19 18 18 19 20 18 15 15 12 12 11 10 9 9 9
2 3 3 3 4 4 3 3 4 3 3 2 2 2 2 3 3 3 3 4 4 5 6 7 5 4 5 6 6 7 11 10 9 10 9 11 15 16 18 17 17 16 16 19 12 11 12 11 11 10 9 9 9 9

GFSWCAN_925_spd_015.txt.gz
Wind_Speed
45 42 38 35 32 29 25 23 20 16 14 11 12 12 14 17 18 11 7 4 3 3 2 1 1 5 4 3 5 5 4 3 3 4 3 4 3 5 2 4 6 7 6 4 3 1 8 7 3 8 6 1 9 8
41 38 36 34 30 28 25 22 19 16 14 11 12 12 12 14 14 12 6 10 12 5 3 4 9 8 2 7 6 1 5 4 5 4 1 3 2 2 2 3 2 3 7 5 10 6 4 6 5 5 6 6 7 8
38 36 34 31 29 26 24 21 17 15 13 12 12 11 11 10 9 8 13 8 7 4 4 4 3 7 10 3 6 5 2 5 4 3 4 3 3 4 4 5 3 4 4 3 2 5 8 8 6 4 6 6 5 6
36 34 32 29 27 25 22 19 16 14 12 12 11 12 12 11 11 11 9 7 8 4 4 4 5 4 9 5 3 3 12 9 7 3 3 3 3 4 3 3 4 4 5 4 5 7 5 7 8 6 6 6 7 8
33 31 30 28 26 24 21 18 16 13 12 11 11 12 12 12 13 15 17 13 7 5 4 2 3 7 11 7 11 16 20 6 3 3 2 3 2 3 0 2 3 5 7 4 7 8 5 6 6 7 9 10 11 9
31 30 28 27 24 22 20 17 15 14 12 11 11 10 11 12 12 4 4 8 9 5 4 2 4 5 11 12 15 11 6 3 3 4 3 2 2 3 4 4 7 6 5 7 8 6 7 4 5 6 8 8 6 8
28 26 25 24 22 20 19 17 15 14 13 12 11 10 8 7 4 7 4 2 5 4 3 2 3 4 5 5 4 3 6 2 3 2 1 3 2 4 3 5 10 9 9 7 6 6 1 4 5 6 8 11 20 18
27 24 21 19 18 18 17 17 16 15 13 13 13 14 16 15 12 8 10 8 6 10 4 3 3 4 7 2 2 3 2 2 4 2 1 2 1 2 3 10 6 8 8 7 6 7 4 5 8 9 18 19 14 10
24 23 21 18 16 16 17 16 16 16 14 14 13 12 5 5 4 2 6 7 12 7 3 2 4 4 3 2 1 3 2 2 2 1 2 3 2 5 6 4 5 6 5 5 1 2 5 7 11 13 14 12 13 7
23 20 18 17 15 14 16 18 18 16 14 11 5 5 3 4 4 3 3 4 5 3 3 2 1 2 2 1 2 2 2 2 1 3 2 2 3 5 4 6 7 8 8 4 5 5 8 11 12 12 12 9 7 7
28 26 24 21 16 14 17 20 19 16 11 3 3 2 2 3 2 4 3 3 1 3 3 1 1 2 2 2 2 1 1 0 2 4 3 2 2 4 11 8 9 9 9 10 12 16 15 15 12 11 5 9 5 4
29 28 26 22 18 18 18 19 18 7 5 7 11 6 2 4 3 4 2 1 2 2 2 1 0 1 0 2 3 1 2 1 5 1 1 3 2 5 9 10 12 15 20 18 23 19 18 16 12 9 5 3 3 4
24 25 25 26 24 21 17 12 12 22 15 6 5 4 3 3 3 4 5 1 2 2 2 2 1 1 2 3 2 2 3 4 1 2 2 2 4 6 7 8 11 16 21 19 16 11 9 7 5 3 3 1 1 3
21 20 20 21 20 18 16 12 10 7 6 3 3 3 2 1 2 1 1 2 1 1 1 1 2 2 1 2 1 3 1 1 2 2 1 1 3 5 7 6 5 6 6 8 8 8 6 4 3 3 5 5 6 8
20 20 20 21 17 14 11 9 8 7 5 3 3 3 2 2 2 1 1 2 1 0 1 1 2 1 1 2 1 2 1 2 1 0 1 1 3 4 5 4 2 3 4 4 5 6 5 3 2 4 3 6 8 9
7 10 22 18 17 15 9 7 6 4 4 3 3 3 2 2 2 1 1 1 1 1 1 1 2 2 1 1 1 2 2 0 1 1 1 2 3 3 3 2 2 1 2 1 2 1 2 3 4 6 9 9 8 9
15 8 14 15 15 12 10 5 4 5 4 3 2 2 2 3 2 1 1 0 0 1 1 1 3 3 1 1 0 2 1 1 1 1 1 3 4 5 7 5 2 3 4 5 7 9 9 8 9 10 10 12 12 13
15 12 11 16 16 8 5 8 4 3 4 1 2 2 2 2 2 2 1 1 2 2 2 2 2 2 1 2 1 2 2 3 2 2 1 2 5 5 3 1 2 3 4 6 6 7 9 10 11 13 15 18 18 19
16 15 15 14 14 5 4 5 5 3 2 2 2 2 2 2 2 1 1 5 0 2 3 2 4 2 2 3 3 2 2 2 3 2 2 3 2 3 5 5 4 5 6 8 10 12 14 14 14 17 20 21 20 22
12 12 13 14 13 5 4 2 3 3 2 1 2 2 2 2 0 1 2 2 2 1 2 1 3 3 3 3 3 3 2 4 3 2 1 2 6 9 12 13 14 12 14 15 16 20 21 19 20 22 23 24 17 17
8 13 11 11 7 11 3 3 3 2 1 2 1 1 1 1 1 1 1 1 2 1 2 2 2 2 1 6 8 9 7 4 2 3 3 2 11 15 15 16 15 17 16 12 12 14 15 16 19 20 19 19 19 23
8 11 8 9 7 6 3 7 1 2 2 1 1 1 2 1 1 1 1 1 2 2 2 1 2 1 3 4 9 11 10 16 16 16 15 9 4 7 9 14 14 12 13 13 14 13 14 16 20 23 21 22 22 23
8 7 5 5 4 4 3 5 2 1 2 1 1 2 1 1 0 1 1 2 0 3 3 3 8 15 17 15 18 22 18 15 13 13 13 11 11 12 12 12 13 12 11 12 14 14 16 20 22 25 24 21 21 21
4 4 4 3 2 3 3 2 1 1 1 1 2 2 2 2 1 1 2 1 1 3 5 6 6 7 11 13 11 13 14 12 11 14 14 8 9 11 12 11 13 15 17 16 16 17 21 23 25 23 23 23 23 22
3 4 2 4 1 1 3 4 3 1 4 3 3 2 3 1 2 3 2 1 2 3 3 9 12 10 6 5 9 8 13 12 8 9 12 12 11 11 12 12 11 13 22 23 22 20 21 25 24 23 24 23 25 25
1 2 3 3 3 2 4 2 3 5 3 3 4 1 1 2 3 2 1 2 2 2 3 5 5 5 6 9 7 7 9 10 7 11 9 12 14 15 11 9 10 12 22 22 22 22 22 23 23 25 24 27 27 27
1 3 2 2 1 2 2 1 2 2 3 3 2 2 2 3 2 2 1 6 3 7 10 12 11 9 8 10 10 10 10 8 5 10 13 12 13 16 17 15 13 17 21 20 18 18 21 24 25 25 26 29 24 16
3 1 1 2 2 1 1 1 2 1 1 1 2 1 2 1 2 2 3 7 11 13 16 16 15 14 15 14 11 10 13 9 14 10 6 7 11 8 17 18 20 20 18 17 17 18 21 22 22 23 24 15 15 16
1 2 1 3 3 2 2 2 2 2 3 0 2 2 2 3 4 5 6 6 7 11 14 16 16 13 13 11 11 11 12 13 12 5 3 3 8 9 18 21 23 21 20 21 20 20 19 16 17 16 14 11 14 13
2 1 2 1 0 1 1 2 2 2 4 3 4 3 3 3 7 6 6 7 11 15 15 14 11 9 10 9 9 10 9 10 13 11 1 4 10 14 19 22 23 21 21 21 21 22 17 16 17 17 16 15 14 13
2 2 2 1 1 0 2 3 2 2 0 3 4 3 3 2 4 10 11 11 10 8 8 10 10 9 8 8 8 5 4 6 10 8 8 9 11 14 18 20 20 21 20 19 20 16 14 15 16 15 13 13 12 11
2 2 2 3 3 3 5 3 3 2 3 2 2 3 2 3 2 4 3 4 5 9 9 7 5 5 6 6 6 6 6 8 9 10 10 9 12 15 17 19 19 18 17 18 15 12 12 13 13 12 11 11 11 10
3 3 3 3 4 5 3 3 4 4 3 2 2 2 1 3 2 2 3 5 6 7 8 8 8 6 3 4 5 6 8 9 8 9 9 10 13 14 17 18 17 15 15 15 14 11 10 11 11 10 9 9 10 10

GFSWCAN_925_spd_018.txt.gz
Wind_Speed
41 39 38 35 33 30 28 25 23 19 16 15 14 16 25 34 26 17 2 4 3 3 1 2 2 5 4 3 5 5 4 3 3 3 3 3 3 5 2 4 6 7 6 4 3 2 8 6 4 7 6 2 5 7
39 37 35 34 31 29 26 23 21 18 16 16 14 16 20 28 24 24 2 8 10 5 3 5 9 6 1 6 6 0 4 5 5 4 1 3 2 1 2 3 2 2 6 4 9 6 4 6 5 4 2 3 6 7
38 37 34 32 30 27 25 23 20 18 15 17 14 15 18 22 22 17 13 9 7 4 4 4 3 5 9 3 7 5 2 5 3 2 4 3 3 4 4 5 3 4 4 3 2 4 7 9 7 6 5 7 4 5
36 34 33 31 29 27 24 21 19 18 15 16 16 15 15 15 15 18 11 7 9 4 4 3 5 4 10 3 2 3 12 8 7 3 3 3 3 4 3 3 3 4 4 4 5 9 6 9 8 10 8 5 6 5
36 33 31 29 27 25 22 20 18 16 17 16 16 16 18 19 19 22 22 15 9 6 4 2 1 9 14 6 11 16 19 6 3 3 2 3 2 4 1 2 2 5 7 4 6 9 5 7 5 2 6 9 9 8
33 31 29 27 25 23 20 19 18 17 17 15 15 16 18 16 10 6 4 11 12 6 4 2 3 5 13 15 19 12 7 4 3 3 2 2 1 3 4 3 7 5 5 6 7 2 6 6 4 3 5 3 5 7
30 28 26 25 24 21 19 18 16 16 16 15 13 12 11 8 8 9 5 3 7 5 3 3 3 4 6 5 4 4 6 3 3 2 1 2 1 3 3 3 8 7 9 8 7 2 5 4 5 4 7 11 18 20
26 24 22 21 21 19 18 16 15 16 17 18 20 20 19 17 14 11 15 9 8 11 4 3 2 3 8 2 2 3 2 2 4 2 1 2 2 2 3 5 7 8 8 7 7 7 3 2 6 6 13 16 14 12
23 20 19 19 18 18 17 15 14 15 16 16 15 13 6 7 5 3 6 10 15 8 3 2 4 3 3 2 1 3 2 2 1 1 1 3 1 4 4 9 10 10 6 8 5 4 5 8 10 11 12 14 15 11
22 18 16 16 17 19 18 15 13 14 14 12 5 6 3 4 4 4 3 4 5 4 3 2 1 2 2 1 2 2 2 1 1 3 1 2 2 4 9 8 8 10 9 6 2 5 10 11 12 14 13 12 10 8
26 22 18 15 16 17 17 15 13 12 7 4 4 2 2 5 4 4 3 4 2 3 2 1 1 2 3 2 2 1 1 0 2 2 2 1 1 4 9 9 10 11 16 16 17 18 17 14 12 11 7 8 3 5
29 26 23 20 18 18 16 14 12 5 5 7 12 7 3 5 3 6 2 2 2 3 2 2 1 1 0 2 3 1 2 1 3 1 0 0 2 4 6 10 11 16 20 19 23 19 19 16 12 8 5 6 4 5
31 29 27 24 20 15 13 10 8 19 11 6 5 4 3 3 4 4 4 1 1 0 1 1 1 1 1 3 3 2 3 3 1 1 1 2 3 4 6 7 9 15 18 17 15 15 14 8 4 0 4 4 4 4
28 28 27 24 20 16 14 14 11 6 6 4 3 4 2 2 2 2 2 2 1 1 2 1 2 2 1 3 1 2 0 1 2 2 1 1 2 5 4 3 4 3 5 6 4 3 3 4 3 1 1 3 4 5
24 25 26 26 19 12 11 10 9 8 6 3 3 3 2 2 2 2 1 2 1 1 1 2 2 1 2 2 1 2 3 1 1 2 1 1 3 4 4 1 4 4 2 1 2 3 4 5 6 7 7 8 9 10
8 12 28 23 16 10 8 7 7 5 5 3 4 3 2 2 2 1 1 2 0 1 1 2 2 2 1 1 2 2 3 3 3 2 2 3 2 3 4 1 1 2 5 6 6 5 5 6 7 7 10 9 7 8
17 12 20 19 12 10 6 5 5 5 4 3 2 2 2 3 2 1 1 1 1 1 1 1 3 3 2 2 1 1 2 2 1 2 2 4 4 3 4 4 4 3 2 3 3 6 7 8 9 13 15 19 19 19
18 18 18 17 10 6 6 8 4 4 5 2 2 2 2 2 2 2 1 2 2 1 2 2 3 2 3 3 2 3 2 2 1 2 3 2 4 3 2 1 4 6 7 10 12 13 16 18 16 13 17 21 22 22
17 15 15 17 10 5 4 5 5 3 2 1 1 1 2 2 1 1 1 3 1 2 3 2 3 2 2 2 2 1 2 2 3 2 2 4 5 7 8 8 9 11 12 13 15 14 14 13 13 14 15 16 15 16
13 13 15 14 8 5 4 3 3 3 2 0 2 2 2 1 2 2 2 2 2 2 2 1 3 2 3 2 3 2 2 3 3 3 2 4 10 15 15 14 13 11 10 10 10 13 12 12 15 16 19 19 19 20
13 19 14 10 6 10 3 3 3 2 1 2 0 1 1 1 2 2 1 2 2 1 2 1 1 2 4 10 11 11 9 4 2 2 3 4 9 13 12 13 12 13 13 13 12 13 15 14 16 20 23 23 23 21
10 12 7 11 8 5 4 9 2 2 2 1 1 1 1 1 1 1 1 2 1 0 1 1 1 1 3 5 10 13 12 16 15 16 17 12 4 6 10 11 12 11 12 12 11 11 14 15 20 23 24 26 25 22
7 6 5 9 5 5 2 9 3 3 2 0 1 1 1 1 1 1 1 1 1 2 1 2 7 13 15 14 16 20 17 15 14 13 12 13 12 11 11 13 15 14 10 13 15 13 16 19 22 24 25 26 25 25
8 5 5 4 5 3 3 4 2 3 3 2 1 1 1 1 1 2 1 1 1 3 3 4 9 7 11 12 11 12 11 11 14 15 12 11 11 11 10 8 9 12 13 12 16 17 19 21 23 25 26 26 25 23
6 5 4 4 2 3 4 5 3 1 2 2 0 3 2 2 1 1 1 1 2 3 3 6 9 8 5 5 9 10 11 10 8 10 11 10 11 10 9 8 8 9 17 19 21 21 21 22 24 25 25 24 24 24
5 3 3 1 2 2 1 1 1 3 2 1 3 0 1 2 2 1 2 3 2 3 4 4 5 5 7 9 7 6 7 6 6 10 7 10 13 13 10 8 9 10 18 17 17 19 20 22 24 24 24 24 21 22
3 3 1 1 1 1 2 2 2 2 2 2 1 0 1 2 1 2 1 7 3 8 11 11 10 10 11 10 10 9 7 5 6 11 13 10 11 12 13 12 11 14 15 15 15 16 18 20 21 21 22 22 16 16
2 1 1 3 1 1 2 1 1 2 2 2 1 2 2 3 1 2 3 7 9 11 14 15 15 16 17 15 12 10 11 12 13 10 7 6 3 5 13 14 14 14 14 15 15 15 15 15 17 17 17 14 16 16
1 2 2 2 2 2 1 1 2 2 3 1 2 1 2 2 3 5 6 4 5 8 12 14 14 12 12 11 10 11 11 5 1 4 2 3 5 4 13 15 17 17 18 18 15 15 12 11 12 12 13 12 12 11
3 1 2 1 0 1 2 1 2 1 3 3 4 3 2 3 7 6 5 6 11 13 11 9 7 4 5 5 6 6 7 8 9 6 2 2 6 11 15 17 20 19 19 18 18 16 12 12 13 14 14 13 12 12
2 1 1 1 1 1 1 4 3 2 4 3 5 3 2 2 4 11 11 10 7 6 6 8 8 7 6 6 6 4 2 5 9 8 9 9 9 12 15 17 18 19 18 17 17 14 13 13 14 13 13 12 12 12
2 2 2 2 3 3 6 3 2 2 3 2 2 2 2 3 2 3 3 3 3 7 7 6 5 3 3 4 5 5 5 8 10 10 11 10 11 13 15 17 18 17 16 16 15 13 12 12 12 12 12 12 12 12
3 3 3 2 4 5 3 3 4 4 3 2 2 1 1 3 2 1 3 5 5 6 5 5 5 3 3 5 6 6 9 10 11 11 11 11 12 14 14 16 17 17 16 15 14 13 12 11 11 11 11 11 12 12

GFSWCAN_925_spd_024.txt.gz
Wind_Speed
24 25 28 28 33 33 26 25 29 32 31 32 33 34 36 47 49 5 7 7 2 3 5 1 4 6 5 7 6 8 6 2 2 2 2 3 2 4 3 2 4 5 6 3 3 3 5 5 6 3 4 4 6 7
27 25 41 41 33 28 29 30 27 26 28 29 30 33 37 48 50 8 6 12 14 5 4 5 6 3 2 3 6 11 1 6 6 3 1 3 3 1 1 2 3 3 4 1 6 2 3 7 6 3 4 8 10 8
32 34 33 30 30 29 26 24 24 23 23 26 30 34 39 48 49 6 13 15 10 4 4 4 4 4 5 3 2 5 2 5 4 3 4 2 3 4 4 4 3 4 4 3 2 2 7 8 10 11 10 11 12 12
36 36 34 31 28 24 21 19 18 19 22 27 32 36 41 47 46 10 8 12 11 3 4 3 3 4 9 2 1 1 9 9 7 2 3 3 3 3 3 0 3 2 7 4 5 11 8 8 5 5 8 9 11 11
36 34 32 28 25 22 19 16 15 18 23 29 33 37 41 45 39 14 11 8 7 0 3 4 4 8 10 6 10 11 15 8 3 3 2 2 3 4 2 0 3 4 1 3 4 8 5 8 9 13 10 11 11 10
35 33 31 26 23 22 20 18 20 20 25 31 35 37 39 41 32 13 3 6 5 7 3 4 2 4 9 12 15 12 7 4 2 3 2 3 2 2 4 4 4 5 6 7 5 13 11 11 5 11 9 10 10 10
34 32 29 27 25 23 21 22 26 30 29 35 38 37 34 37 27 6 3 5 9 8 3 4 3 3 6 4 4 4 6 3 3 3 3 2 2 3 3 3 6 8 10 7 9 11 2 11 5 9 11 14 19 21
33 31 29 27 26 26 25 24 26 29 28 30 30 27 24 24 20 10 9 6 8 4 3 4 2 2 7 3 2 3 2 2 5 3 2 2 2 1 3 6 8 10 12 6 11 8 6 7 10 11 14 16 16 15
28 28 29 27 27 25 21 24 28 26 25 27 25 23 13 8 4 3 3 11 13 6 3 3 5 3 2 2 2 2 2 3 0 1 2 3 2 2 3 5 7 8 7 7 6 9 11 13 13 14 15 14 13 9
24 22 27 26 22 19 18 19 15 13 13 12 8 7 3 3 3 3 5 3 5 5 5 3 1 3 0 1 2 2 2 2 2 2 2 1 2 4 2 2 2 4 8 7 6 9 9 11 11 12 10 10 10 8
22 21 22 18 15 17 17 12 10 9 7 7 4 3 3 5 2 3 3 4 2 3 3 2 2 3 2 2 2 2 2 1 3 3 2 2 3 3 2 4 5 9 12 13 16 14 15 13 10 9 6 5 5 6
23 20 18 15 10 5 4 10 8 6 7 8 13 8 4 4 3 6 3 2 3 2 1 1 2 3 2 1 2 1 2 1 2 3 2 3 3 7 7 8 10 13 15 15 16 14 12 9 7 7 6 5 6 6
24 22 20 17 16 14 10 8 17 13 8 5 5 5 4 4 6 2 4 2 2 1 1 1 3 2 2 3 3 2 3 2 2 2 1 2 7 6 8 10 10 11 10 9 9 7 6 7 7 7 7 7 8 8
24 22 21 19 16 16 16 13 10 9 9 4 4 4 3 3 3 2 2 2 1 1 2 2 2 1 1 3 1 2 1 1 3 4 3 4 8 8 9 7 9 7 5 5 6 7 7 7 7 9 10 10 11 10
23 22 20 22 17 15 12 14 14 11 7 4 4 4 4 2 3 2 1 2 2 1 1 2 2 2 2 3 2 3 3 3 2 1 3 5 9 8 7 7 5 4 2 3 5 6 7 7 7 9 11 11 12 13
11 17 21 13 11 11 15 15 22 8 5 4 5 3 2 2 2 2 2 2 2 1 1 2 2 2 2 2 3 2 2 1 2 3 4 7 8 8 9 6 5 4 4 6 7 7 9 11 10 8 8 12 14 13
19 10 13 9 13 12 8 7 6 5 4 3 3 2 2 3 3 2 2 2 3 0 2 1 2 2 2 2 2 1 1 2 4 5 4 9 10 10 9 7 6 8 8 9 10 10 8 7 6 9 12 14 14 13
14 17 12 6 6 8 7 9 4 4 6 4 3 3 2 3 2 3 2 3 2 2 1 2 2 2 1 2 2 3 2 3 4 4 3 5 7 8 6 8 9 10 10 9 8 7 8 7 8 9 10 12 12 13
17 16 11 10 7 6 4 6 5 4 4 2 2 2 2 2 3 3 1 4 4 3 2 1 2 2 1 1 2 4 5 3 4 4 5 9 9 11 11 12 11 10 9 8 7 7 7 8 8 9 9 11 12 14
14 15 18 16 7 5 4 4 4 4 3 2 2 2 2 2 2 2 2 3 3 2 3 3 3 3 3 3 3 2 6 7 8 7 6 6 10 11 9 9 9 9 8 7 8 7 6 6 7 9 10 11 12 14
11 16 16 10 8 12 4 4 4 3 2 3 1 1 2 1 2 3 3 4 2 3 2 2 2 2 4 5 5 4 6 6 3 3 5 7 9 9 10 9 8 8 7 6 6 6 6 7 8 9 10 10 12 12
10 11 7 10 6 5 4 10 2 1 2 2 2 2 2 2 2 2 2 2 3 3 3 3 3 1 3 5 8 8 8 12 14 16 18 16 8 8 8 7 6 7 7 6 5 5 6 7 8 9 9 11 11 12
7 7 7 10 5 6 3 7 3 4 2 2 2 2 2 2 3 3 2 3 3 8 10 6 7 10 10 10 11 14 11 10 12 13 12 13 13 11 10 9 8 6 5 5 5 5 6 7 8 9 10 10 11 11
10 7 6 5 6 4 2 4 3 3 2 2 2 2 2 2 3 1 3 3 4 11 10 6 4 5 8 11 10 13 12 10 13 14 10 10 10 9 8 8 7 7 5 4 5 6 6 7 9 9 10 10 11 11
5 8 4 6 4 4 5 3 4 3 3 3 3 2 2 2 1 3 3 3 5 7 7 11 10 9 5 5 8 10 13 8 9 11 11 10 9 8 7 6 5 5 7 6 7 8 8 9 9 10 10 10 11 12
7 8 5 3 3 3 2 2 2 3 2 2 2 2 1 1 2 2 2 4 4 5 8 7 5 4 6 9 6 7 8 8 8 11 9 8 8 6 5 4 3 3 8 7 9 10 11 11 11 11 11 11 11 12
5 5 4 3 1 1 2 1 1 1 2 2 2 1 0 1 2 2 2 7 4 7 8 10 10 10 8 8 8 9 9 9 9 9 8 8 8 8 7 5 5 6 8 8 9 9 11 12 11 11 12 12 11 11
3 3 3 3 2 2 2 1 2 2 2 2 2 0 1 2 2 2 3 4 5 5 8 10 11 10 9 8 7 8 9 8 7 6 6 5 5 5 7 6 7 10 10 10 10 9 10 10 11 11 12 12 11 10
3 2 0 3 1 2 2 2 2 2 2 2 2 2 2 3 3 3 4 4 3 3 5 6 8 7 8 10 10 9 7 6 4 3 3 3 3 3 7 7 8 9 9 10 10 9 9 9 9 9 9 9 9 8
3 3 1 1 1 1 2 1 1 1 3 3 3 3 3 3 6 6 6 7 7 7 6 5 5 4 4 4 4 5 7 8 8 6 4 4 6 9 8 9 9 10 11 11 11 11 10 8 7 7 7 7 7 7
2 1 1 1 1 1 2 4 3 4 3 3 4 3 3 3 4 7 8 7 5 4 4 5 6 6 6 6 6 4 3 5 9 7 7 7 8 8 8 9 10 11 11 11 10 10 10 9 8 8 8 8 8 8
3 3 2 2 0 2 4 3 2 1 2 2 2 2 3 2 2 3 5 5 5 6 6 5 5 5 4 5 5 4 4 7 8 11 11 11 9 9 10 11 13 12 12 12 10 9 9 9 8 8 8 8 9 8
0 0 1 2 2 2 3 3 3 1 3 2 3 2 2 2 3 3 3 7 6 5 5 5 5 4 4 6 9 7 8 11 13 13 13 12 11 11 14 13 11 12 13 12 10 9 9 9 8 8 8 8 8 8

GFSWCAN_925_spd_027.txt.gz
Wind_Speed
29 29 28 28 29 29 29 28 33 35 35 37 41 40 45 48 47 42 9 6 6 4 7 2 9 13 12 12 8 11 7 2 3 3 3 3 1 4 2 2 6 6 7 3 3 3 5 6 6 2 5 6 9 9
26 27 27 26 27 33 30 28 38 37 43 38 41 44 44 46 43 43 7 3 10 4 6 6 7 7 0 7 8 12 4 11 7 5 1 2 2 1 1 3 3 4 5 2 6 2 4 5 5 5 4 7 8 9
23 23 27 28 32 30 31 37 34 30 34 37 39 41 40 40 42 29 4 6 9 4 5 5 5 6 5 3 3 5 3 5 6 2 4 2 3 4 4 5 3 4 2 3 1 2 3 4 5 3 4 7 10 11
24 19 25 29 26 25 29 29 29 32 34 36 38 38 38 38 44 15 5 1 7 5 3 4 4 3 4 2 4 1 10 6 9 5 3 3 3 4 4 2 4 3 7 5 6 9 6 5 4 7 10 10 10 10
33 29 26 26 27 27 23 22 26 30 33 33 32 31 33 34 42 11 3 4 8 2 3 6 9 6 2 5 6 7 13 9 4 3 2 2 3 4 2 0 3 4 2 3 3 6 5 8 12 10 8 10 9 9
29 26 25 25 22 19 19 22 25 27 28 29 31 33 34 38 46 11 3 4 11 7 4 4 4 4 8 11 11 9 5 3 3 3 2 3 2 2 4 4 5 4 4 3 4 8 8 6 11 11 10 11 12 12
34 32 28 24 22 22 18 18 21 25 28 30 32 35 37 41 33 4 1 5 12 9 3 4 4 4 3 6 3 4 4 3 1 3 2 3 3 3 2 4 5 3 4 1 6 8 5 10 6 9 12 15 18 19
36 35 37 34 30 25 28 24 26 28 29 31 32 34 36 35 12 3 8 13 12 2 1 4 3 4 4 3 3 3 2 2 5 3 2 3 3 1 3 6 4 5 3 7 6 6 6 8 12 12 14 14 14 13
38 36 36 38 37 36 37 36 38 41 41 40 38 38 31 10 3 4 9 9 7 3 0 2 5 4 2 3 2 2 2 3 1 2 2 3 2 3 4 4 4 6 4 3 7 11 12 12 12 11 12 11 11 8
36 30 29 31 29 29 26 24 28 34 38 38 25 8 4 2 12 7 9 4 1 2 4 3 1 4 0 2 2 2 2 2 2 1 3 1 2 4 3 3 3 4 5 10 10 8 10 11 11 10 10 8 9 9
29 29 26 25 25 26 20 15 13 14 11 4 4 3 4 5 3 3 2 1 2 2 3 2 3 5 3 2 3 2 2 2 3 3 3 3 3 4 4 4 4 6 10 12 15 12 13 12 9 7 7 8 7 8
23 20 17 15 15 21 26 15 10 15 9 8 17 9 4 1 2 5 3 2 2 2 2 2 3 3 2 1 3 2 3 2 2 5 3 3 3 9 8 8 9 13 15 15 16 13 11 9 8 8 7 8 8 7
21 22 21 17 12 11 12 21 23 16 10 5 5 5 3 3 4 3 5 1 3 1 1 2 3 2 2 3 3 2 3 2 4 1 2 2 7 8 10 11 11 13 12 11 10 9 9 9 10 9 8 8 7 8
21 20 22 23 23 18 8 6 12 11 11 5 5 5 4 3 4 3 3 3 2 1 1 4 3 2 1 2 0 3 1 1 3 4 3 4 8 9 9 10 11 10 5 7 9 9 9 9 10 11 12 10 11 10
23 23 20 21 18 19 17 14 7 16 9 5 5 4 5 2 3 2 1 2 3 1 1 3 3 2 2 3 2 3 3 3 3 1 2 6 10 9 10 10 10 8 4 5 9 9 9 7 8 9 9 9 9 9
12 16 22 14 15 15 15 18 17 6 5 3 5 3 2 2 3 3 3 2 4 2 2 2 2 2 2 2 3 2 2 1 3 3 4 9 10 9 9 8 8 7 7 8 9 10 10 9 8 6 7 9 9 8
15 7 10 12 15 12 8 9 8 6 4 3 3 3 3 4 4 2 2 2 4 2 2 2 2 4 2 2 2 2 2 3 4 5 4 7 9 10 9 10 8 9 9 9 9 8 7 7 6 6 5 8 9 8
11 11 9 7 8 11 8 9 4 4 5 5 4 3 3 3 3 4 3 5 3 1 1 2 1 1 2 2 3 3 3 4 5 5 5 7 10 10 9 10 10 9 9 8 8 8 7 4 3 5 6 9 10 10
17 15 9 10 8 6 4 6 6 4 5 2 2 2 2 2 4 5 2 3 4 3 1 1 2 3 3 4 3 3 4 2 3 3 4 8 10 9 10 11 11 9 9 7 6 5 5 6 6 7 8 9 10 10
15 16 20 15 10 5 5 4 5 4 4 3 3 4 3 3 2 2 4 5 4 2 5 4 4 3 4 5 5 1 4 5 7 6 6 5 9 12 11 10 8 10 9 8 8 5 3 3 6 7 8 9 10 10
11 16 15 9 8 12 5 4 4 3 3 3 2 2 3 2 4 4 4 5 4 4 3 4 4 4 7 9 11 9 8 3 6 4 7 7 10 10 10 9 8 7 6 5 4 5 6 5 6 8 8 9 9 10
8 11 6 10 6 5 5 10 3 2 3 3 3 3 3 2 3 4 4 4 4 5 4 5 7 4 6 10 14 15 10 10 12 13 13 13 7 8 8 7 7 8 8 6 6 5 5 6 7 8 8 10 10 11
8 8 7 11 5 6 3 7 4 4 3 2 1 2 2 3 3 4 3 4 4 6 9 7 8 10 11 12 14 17 18 13 13 12 13 14 15 13 12 11 9 7 6 6 6 5 5 6 6 8 9 10 11 12
10 6 6 5 6 4 2 4 2 2 3 3 2 2 2 2 3 2 3 3 4 9 10 11 8 3 7 10 10 13 13 12 13 14 10 11 12 11 11 10 9 8 7 5 5 5 6 7 9 9 10 11 11 12
5 7 5 6 4 3 4 3 3 3 3 3 2 2 2 2 1 3 2 2 5 6 7 12 11 10 5 6 10 12 14 11 10 11 12 10 10 9 8 7 7 7 7 6 6 8 8 9 9 10 11 11 12 13
7 8 5 5 3 3 3 2 3 4 3 2 3 2 1 1 2 3 3 4 4 5 7 8 8 4 6 10 7 9 10 9 8 11 10 10 9 6 4 3 2 4 8 7 8 9 10 10 10 12 12 12 11 13
5 6 4 3 2 2 2 2 2 2 3 3 2 2 1 0 2 3 4 7 4 7 8 10 10 10 8 8 9 9 10 11 11 9 7 8 8 8 7 6 6 5 7 8 8 9 11 12 12 12 13 13 12 12
5 5 4 3 3 3 2 2 2 2 2 3 3 2 3 5 3 3 5 6 5 6 8 9 10 9 8 8 7 6 7 6 6 6 5 5 6 6 7 6 6 9 8 8 9 9 10 11 12 13 14 13 13 12
4 3 2 4 2 3 3 2 2 2 4 3 3 2 2 3 5 5 6 5 5 4 5 5 7 6 6 7 8 8 8 8 7 4 5 3 4 4 8 8 8 9 10 11 11 11 11 12 12 13 12 12 12 11
4 4 1 2 1 2 2 3 2 3 5 4 3 3 3 4 7 7 7 7 7 7 6 5 5 5 5 4 5 5 7 8 9 7 5 5 8 10 9 9 10 10 11 11 12 12 11 11 11 10 10 11 10 10
3 2 1 2 1 2 3 3 1 4 3 3 6 4 4 4 5 8 9 7 6 5 4 5 6 6 6 7 7 5 4 5 8 7 6 7 9 9 10 10 10 11 11 11 12 12 12 13 12 11 11 11 11 11
3 3 3 2 2 2 3 2 1 1 3 2 2 3 3 3 3 3 6 7 4 5 6 5 5 5 4 4 5 5 5 6 8 9 10 9 10 10 11 10 11 12 12 12 13 13 12 12 12 12 12 11 11 11
1 1 1 1 1 1 2 3 1 1 2 2 2 2 3 4 3 3 3 7 6 5 4 4 4 4 5 5 7 7 7 8 11 12 13 12 11 10 10 10 12 12 12 13 14 13 13 12 12 11 11 11 10 10

GFSWCAN_925_spd_030.txt.gz
Wind_Speed
33 29 28 26 23 25 26 26 24 24 28 32 35 35 36 41 46 36 34 39 11 2 12 19 14 14 9 12 7 9 6 3 3 2 3 2 2 4 2 7 7 6 6 3 2 2 6 5 5 1 4 4 7 6
29 29 30 29 27 27 27 25 23 25 29 31 36 36 41 40 38 35 17 43 33 10 5 12 15 13 7 2 8 10 5 10 6 3 1 3 2 2 2 2 7 4 5 3 7 4 4 4 4 3 5 3 4 6
24 25 26 26 25 25 24 24 26 29 31 33 37 39 30 34 41 41 42 38 21 8 5 5 7 9 12 9 10 4 2 8 6 3 3 2 3 3 3 3 4 5 4 2 2 3 5 4 2 3 8 9 9 9
21 20 21 23 25 25 25 29 29 31 33 30 35 39 38 42 43 45 37 39 21 5 4 4 2 4 7 4 7 4 4 6 6 5 3 3 3 5 3 2 3 0 8 6 5 6 4 9 13 11 9 11 12 11
21 25 28 29 31 32 34 31 32 32 34 35 37 39 39 36 37 35 38 29 20 3 4 5 7 5 2 4 5 5 9 7 4 3 3 2 2 3 2 1 1 6 2 3 1 8 3 10 11 10 12 11 12 11
26 32 36 37 39 38 34 35 37 37 34 33 32 33 33 33 31 16 4 6 5 8 4 3 2 2 6 9 9 8 6 5 4 3 1 3 3 1 3 3 7 9 7 6 4 5 3 12 12 15 14 12 12 13
19 21 26 27 27 28 29 32 31 33 35 34 33 34 33 33 32 3 3 3 9 6 3 3 3 1 7 10 4 4 3 2 2 3 2 3 2 3 3 2 10 6 5 5 5 2 9 7 10 14 14 14 16 17
38 32 27 29 30 31 31 32 35 34 34 34 32 30 31 30 19 4 6 4 4 4 3 3 1 3 2 3 3 5 2 2 5 3 1 2 2 1 2 9 9 5 10 7 6 9 15 14 14 12 14 14 13 12
51 48 42 38 35 33 34 35 36 36 35 33 33 34 32 15 2 2 11 16 17 10 2 2 4 3 3 3 1 2 1 3 1 2 2 4 2 2 6 8 8 5 3 10 12 13 12 13 12 12 12 11 11 8
47 50 43 42 39 37 36 38 38 39 42 46 46 10 3 3 12 3 3 3 4 2 3 2 1 3 1 2 1 2 2 2 2 1 2 2 2 4 4 5 5 3 6 13 11 9 10 11 11 10 10 11 12 11
34 42 46 40 35 33 36 41 46 52 48 12 3 3 6 8 3 3 3 3 1 1 2 1 1 4 4 3 3 1 2 1 3 3 4 3 3 5 5 6 6 5 9 9 12 11 11 11 9 9 8 11 10 11
26 25 33 34 41 37 25 23 17 11 5 10 20 12 5 4 0 5 3 1 2 2 2 1 2 3 2 1 3 1 3 1 2 5 2 3 3 10 8 8 8 9 13 13 17 14 13 13 12 11 12 10 9 13
24 18 18 26 28 30 31 25 28 30 23 10 8 4 3 4 6 2 4 2 3 0 1 1 2 2 2 3 3 3 3 2 4 1 2 2 8 7 9 9 10 14 14 14 14 15 16 15 14 14 12 10 12 14
28 28 15 15 22 22 21 22 14 9 12 5 4 5 4 3 4 3 2 1 0 2 2 3 2 2 1 3 1 4 1 2 2 3 3 4 8 9 9 8 11 10 5 10 13 14 14 14 14 15 14 12 12 11
25 25 28 29 21 14 10 18 22 21 8 5 4 4 3 1 2 1 2 1 3 2 2 2 2 2 3 4 2 4 2 3 3 0 2 5 9 7 9 9 11 6 5 9 12 11 12 14 13 13 11 10 11 12
18 26 27 22 23 19 19 11 19 9 5 4 6 3 1 2 3 3 4 2 4 2 2 1 2 3 3 2 2 1 3 1 2 2 4 8 8 8 8 9 11 11 10 15 13 12 11 12 11 11 11 10 8 12
19 10 14 18 22 22 14 11 7 5 4 4 4 3 3 4 3 2 2 3 4 2 2 2 3 4 1 1 2 3 3 2 3 3 4 8 10 7 8 11 12 12 13 14 13 12 11 10 10 8 8 9 7 7
12 13 10 8 7 14 13 10 5 5 6 4 4 4 3 3 2 3 3 4 2 2 2 2 1 2 3 3 3 2 3 4 5 4 5 7 7 10 11 12 12 12 14 13 12 10 8 6 7 8 7 7 6 8
19 16 12 14 10 7 4 6 5 4 5 2 2 2 2 2 4 5 4 4 3 1 3 2 5 4 4 4 4 3 3 2 3 3 4 10 12 10 11 14 16 14 11 10 9 10 10 10 8 7 6 7 7 8
15 19 21 20 8 5 5 4 5 4 3 2 2 5 3 2 3 3 5 5 6 3 5 4 4 3 3 5 6 4 3 5 5 5 3 4 11 13 11 10 11 14 12 11 10 7 6 8 8 7 7 7 8 8
12 17 18 12 9 13 5 3 4 3 3 3 1 2 3 4 4 4 5 5 6 4 4 5 5 6 11 12 15 13 13 8 2 0 5 5 9 11 12 12 10 9 10 10 10 9 9 8 6 6 6 7 7 7
8 12 7 11 6 6 5 12 2 2 3 3 3 3 2 2 3 4 2 6 4 4 4 5 7 6 7 10 13 18 15 16 17 18 19 16 6 8 9 9 11 13 13 10 9 7 7 6 6 7 7 7 8 9
7 8 7 9 5 6 3 8 4 5 3 2 3 3 3 3 4 3 4 4 3 9 12 7 7 10 10 12 15 18 17 15 14 14 15 16 16 15 14 15 14 11 10 8 7 6 6 5 6 7 7 9 10 10
9 6 6 5 6 4 1 4 2 3 3 3 3 3 3 3 4 3 4 3 5 10 10 12 13 4 11 14 11 16 15 12 14 16 13 13 13 13 13 12 11 10 8 6 6 6 6 6 7 8 9 10 11 10
6 7 5 7 4 4 4 3 4 4 4 3 1 3 3 2 2 3 3 3 6 6 7 12 11 12 6 6 11 14 15 13 11 11 13 9 9 10 10 10 10 10 9 8 8 8 8 8 8 9 11 11 11 11
7 9 5 5 4 4 4 3 3 4 3 2 3 1 2 1 2 4 3 4 5 5 7 8 9 6 7 12 9 11 12 10 8 11 11 11 11 8 7 6 5 8 11 9 8 9 10 10 10 11 11 11 12 12
6 6 5 3 1 2 3 3 1 3 4 4 3 4 2 0 4 3 4 7 4 8 9 10 11 10 10 10 10 9 10 12 11 9 8 9 11 11 10 8 7 6 7 8 8 9 9 11 12 12 13 13 12 12
4 5 5 4 4 4 3 3 3 4 3 4 4 3 4 5 4 3 4 7 5 5 7 9 9 9 9 9 9 9 8 5 6 4 6 7 8 8 8 7 6 8 7 7 8 8 9 10 12 13 14 14 14 13
5 3 3 4 2 4 4 3 2 3 5 3 4 3 3 3 6 5 5 4 6 8 8 7 6 5 7 9 9 10 10 12 10 6 6 4 4 8 12 9 8 8 9 10 10 11 11 12 11 13 13 12 12 12
4 4 2 3 3 4 3 4 4 4 5 4 3 4 4 5 8 9 9 9 9 8 7 7 7 9 9 8 7 7 9 10 12 9 5 5 9 11 11 10 9 10 10 11 12 12 12 11 13 13 12 10 10 9
3 3 2 3 3 2 3 2 4 5 3 3 8 6 5 4 6 9 10 9 8 9 7 8 10 11 10 10 10 9 6 9 10 8 9 8 9 10 11 11 11 10 11 11 12 12 14 14 12 13 13 13 12 12
3 4 3 2 3 3 2 2 2 1 3 2 2 3 3 4 3 4 10 13 9 10 10 10 10 9 7 6 6 7 7 8 9 10 11 11 11 11 11 11 11 11 12 12 13 13 14 14 14 13 13 13 13 12
0 0 1 1 0 1 3 4 0 2 3 3 3 3 4 4 4 3 4 9 8 8 8 7 6 6 7 7 8 8 8 8 11 13 12 12 17 14 10 10 12 13 14 13 13 14 15 14 13 12 12 13 12 11

GFSWCAN_925_spd_033.txt.gz
Wind_Speed
35 34 32 28 27 25 24 24 22 25 26 29 33 36 37 37 37 35 26 24 5 3 6 2 9 13 8 6 7 9 4 5 2 3 4 3 3 5 4 8 7 6 6 3 3 2 6 6 3 6 5 3 6 5
31 30 28 24 24 26 24 23 20 21 23 28 32 34 34 37 39 36 13 21 19 5 5 20 7 6 8 10 7 6 10 9 6 4 3 4 2 2 3 2 3 2 6 6 7 6 7 3 7 5 8 7 5 7
25 25 26 25 23 25 25 22 20 19 22 29 33 33 34 37 39 36 22 11 13 3 6 3 1 7 19 24 27 5 2 5 2 4 4 3 4 4 3 4 3 2 5 3 5 2 2 7 12 11 12 11 12 12
27 26 25 27 25 23 22 22 20 21 25 28 30 30 33 31 36 33 29 27 9 2 2 4 6 4 8 17 16 5 8 5 6 4 4 3 4 4 4 4 4 5 5 5 2 8 13 10 9 11 13 13 16 16
23 24 24 25 24 24 23 22 23 26 27 29 30 27 32 32 31 31 21 26 25 3 3 3 9 13 9 10 18 12 10 6 3 3 3 3 3 4 1 3 1 2 5 4 4 2 10 6 10 13 16 13 13 14
20 22 23 24 24 25 24 24 23 28 23 26 30 29 29 28 32 18 3 21 38 19 5 2 2 6 5 7 11 8 4 4 3 4 2 2 2 4 3 3 1 4 9 4 5 9 15 15 14 14 15 13 13 14
26 25 26 28 29 27 29 26 25 26 28 25 26 29 30 32 31 9 6 10 15 22 4 2 4 4 6 6 4 4 5 3 3 2 2 3 2 3 3 4 6 6 10 8 6 14 10 5 9 13 15 19 22 21
32 36 37 35 28 25 26 29 24 28 28 30 32 36 38 30 12 11 22 13 11 1 4 4 2 4 8 3 3 4 2 3 5 2 2 3 3 2 3 5 7 10 10 13 14 14 15 15 15 13 18 17 13 11
18 20 22 22 26 29 29 27 33 38 39 38 35 33 28 9 4 17 18 1 16 7 4 3 4 3 3 3 3 4 3 3 2 2 2 4 0 2 2 8 7 6 7 14 14 14 13 14 13 13 11 9 10 9
31 24 23 24 25 26 29 32 33 32 33 35 31 6 4 5 2 7 1 4 5 4 4 2 2 2 2 2 1 2 2 2 2 3 2 3 2 3 5 6 6 8 14 15 15 9 11 11 9 10 12 12 13 12
40 35 28 25 28 28 28 30 33 37 41 8 2 3 9 5 9 4 3 4 1 3 2 1 1 3 3 3 2 1 2 0 3 3 4 1 2 3 3 6 5 5 8 8 12 10 10 12 13 12 11 15 16 16
47 45 40 36 32 31 31 35 43 16 3 7 17 12 8 5 3 6 3 2 5 3 2 2 3 3 2 1 3 0 2 2 2 2 3 3 2 7 8 6 6 10 13 13 17 13 16 17 20 18 15 16 17 16
38 45 43 41 36 35 40 42 13 34 32 9 7 5 1 3 6 4 2 2 3 3 3 3 3 2 3 3 2 2 3 1 2 3 4 1 6 6 7 8 11 15 17 19 19 22 22 20 22 20 17 19 20 19
25 32 37 37 36 28 23 26 11 7 10 4 4 5 4 4 4 3 2 2 1 1 1 3 2 2 0 3 1 4 1 2 2 2 3 3 8 7 7 7 10 11 12 14 16 18 18 19 18 21 20 19 18 15
32 23 25 31 26 28 27 22 14 13 8 5 5 5 4 1 3 2 1 2 2 2 2 2 2 2 2 3 2 3 2 3 1 2 2 5 8 7 9 10 10 12 10 11 16 15 17 18 17 17 17 17 17 15
25 35 32 26 22 17 14 19 25 8 4 4 6 4 2 3 3 3 3 2 3 2 1 2 2 3 3 2 2 2 4 2 2 2 2 6 6 9 10 10 9 14 17 15 14 16 18 19 17 17 15 15 14 14
32 13 19 22 23 25 17 12 12 7 5 5 4 3 2 3 3 2 3 3 2 2 2 2 3 2 1 3 3 3 3 2 2 2 3 6 8 9 11 12 14 17 18 17 17 17 19 19 20 17 12 9 11 12
17 18 13 10 15 27 20 11 5 4 6 4 3 4 3 3 2 2 3 2 2 1 1 2 1 4 5 4 3 2 3 3 3 3 5 7 9 14 15 13 15 17 18 19 19 17 17 15 14 13 12 10 12 11
21 19 14 15 11 8 4 6 6 4 5 2 2 2 2 2 2 4 5 5 6 6 3 3 5 4 3 3 3 4 2 2 2 3 4 11 13 13 14 16 18 17 17 17 17 16 18 19 16 14 11 9 11 10
18 22 25 17 8 6 5 3 6 4 3 2 1 2 2 2 2 3 8 6 5 3 5 4 4 3 3 4 4 4 3 2 3 4 3 5 12 15 13 13 14 18 19 20 17 17 17 16 14 11 9 8 8 6
13 19 17 13 9 14 4 3 4 3 3 2 2 2 2 3 6 6 4 5 7 4 4 3 4 6 10 11 16 13 15 14 5 2 2 5 10 14 16 14 15 14 14 13 13 14 15 12 9 8 8 7 7 7
10 12 7 12 6 6 4 12 2 2 3 1 3 3 2 3 3 4 2 6 4 5 3 3 5 5 7 11 16 19 15 16 19 21 22 16 7 9 12 15 18 16 16 14 14 13 11 7 8 5 6 6 7 8
7 8 8 9 6 6 2 8 5 4 3 2 3 3 3 3 2 2 3 3 3 7 11 7 11 16 14 16 19 21 22 18 15 16 17 18 18 18 20 20 17 15 12 13 12 10 9 5 7 7 6 7 9 8
10 7 6 5 5 4 2 4 2 3 3 3 3 3 3 3 2 3 3 3 4 10 11 12 10 5 11 15 11 16 17 16 17 18 16 14 14 15 17 17 18 16 12 10 10 10 8 7 6 6 9 9 10 9
7 8 5 6 5 5 5 4 5 4 4 5 3 3 2 2 3 3 3 3 4 5 6 13 11 13 6 6 11 14 20 14 12 12 18 11 13 14 13 14 16 15 10 10 11 9 10 8 8 9 9 10 10 10
8 8 5 5 4 4 3 3 3 2 1 2 3 0 1 2 4 4 3 3 2 4 6 8 6 5 7 12 8 11 14 11 14 14 14 14 15 13 10 7 7 8 10 7 7 8 9 10 11 11 11 12 13 8
6 6 3 1 0 1 3 3 2 4 4 4 2 3 3 3 3 3 2 7 3 9 10 13 13 12 9 9 9 10 13 12 13 12 11 13 15 14 13 11 8 7 5 7 11 9 8 9 10 12 13 12 12 13
4 4 5 4 4 4 3 3 4 5 3 4 3 4 3 4 3 2 4 8 4 9 10 11 11 11 13 13 12 10 12 6 7 9 12 15 13 13 12 10 8 7 6 7 9 8 9 9 12 11 11 14 15 13
3 3 3 5 4 4 5 4 2 3 4 3 3 3 3 3 7 6 9 13 13 14 13 12 7 9 11 13 14 16 17 15 14 7 5 3 3 13 14 10 7 7 10 9 9 10 10 12 10 13 14 16 15 14
4 3 3 3 4 3 2 4 3 3 6 5 4 3 3 4 12 15 16 14 12 11 12 15 15 15 16 14 11 11 14 16 13 10 3 3 8 12 13 11 11 12 11 12 13 12 12 13 14 13 12 14 12 13
2 3 3 3 3 2 2 1 8 7 4 3 7 3 4 3 5 13 20 11 8 18 13 14 15 13 13 14 13 9 5 10 9 7 12 10 12 11 14 16 13 13 13 14 13 14 15 15 15 15 14 12 11 8
3 3 2 3 2 2 3 2 1 1 3 2 2 3 2 3 3 4 13 14 14 14 14 13 11 9 10 6 7 8 7 7 7 14 15 14 14 17 18 14 10 12 15 17 16 14 14 15 17 17 13 8 12 13
1 1 3 3 3 2 1 2 0 3 4 2 2 2 2 3 3 2 6 10 7 7 7 7 6 6 5 6 8 6 5 9 15 13 13 15 16 15 14 17 17 14 14 13 12 13 14 16 16 15 11 9 9 10

GFSWCAN_925_spd_036.txt.gz
Wind_Speed
38 36 35 35 36 35 32 31 27 32 36 42 40 45 46 44 42 38 29 14 7 3 5 5 4 7 13 14 7 4 4 3 2 3 4 4 3 6 4 7 7 7 6 3 3 3 7 6 4 7 6 3 7 6
32 32 32 31 31 30 25 21 18 24 36 42 43 47 45 41 43 39 10 24 11 2 4 15 25 28 15 14 6 3 5 6 5 3 1 3 2 2 4 2 3 1 7 6 8 6 4 4 3 5 6 7 4 7
27 28 28 27 26 22 20 19 22 22 28 32 42 44 42 43 45 33 13 16 11 4 7 6 7 6 12 29 28 5 2 6 5 4 3 2 4 4 4 4 4 2 4 4 4 5 5 7 8 7 7 11 7 6
25 23 24 23 25 24 23 21 22 21 23 26 33 38 38 36 37 29 11 13 19 4 1 5 12 6 10 18 37 20 11 4 7 5 2 3 4 3 4 4 5 5 7 6 4 1 10 7 7 10 13 12 14 13
24 23 21 21 23 23 20 18 17 18 25 31 30 30 30 29 26 22 13 16 12 3 3 5 14 5 8 13 9 22 12 7 3 3 2 3 3 4 1 3 2 4 7 5 5 11 5 4 5 7 12 11 11 15
21 21 21 22 20 20 18 16 16 20 24 27 27 27 27 24 22 16 2 12 29 10 3 4 5 5 5 12 10 6 5 4 2 4 2 4 0 3 4 3 1 1 1 4 6 6 13 13 10 9 13 12 13 14
20 20 21 21 21 20 19 17 18 20 22 23 23 23 24 24 25 7 5 2 26 19 2 3 4 3 9 5 3 2 2 3 2 2 2 2 2 3 3 4 6 5 9 14 19 18 10 4 8 12 16 19 22 21
25 25 24 24 22 21 21 21 20 18 18 18 17 20 18 24 24 17 10 5 16 9 3 3 3 4 6 3 2 2 2 3 3 3 1 2 2 2 2 2 9 9 13 10 7 9 14 17 16 14 19 19 15 12
32 30 28 28 26 26 22 24 19 19 19 19 21 22 19 14 6 16 22 6 6 4 2 3 4 2 4 3 3 3 3 3 2 3 2 3 1 1 1 5 10 8 6 13 15 17 16 16 15 13 13 11 13 10
25 36 33 33 29 26 27 27 24 23 25 26 31 9 2 6 9 11 2 2 3 4 3 2 2 1 1 1 3 3 2 2 2 2 1 3 2 1 4 5 9 13 16 16 17 9 14 14 13 11 10 9 10 11
26 27 28 30 32 31 29 31 30 31 32 13 4 2 14 22 5 3 4 4 1 3 3 1 2 3 4 3 2 2 1 1 3 2 4 2 2 3 4 6 6 9 9 4 11 11 12 15 15 14 12 15 16 14
28 27 31 34 35 33 33 35 36 24 10 7 14 14 7 2 2 3 3 3 5 2 3 2 3 3 3 3 3 2 2 3 2 2 3 2 1 7 6 7 8 9 12 13 19 17 19 19 20 19 17 16 16 17
34 31 31 32 34 37 38 42 25 17 35 9 5 4 2 3 7 4 1 2 2 3 2 2 1 2 2 3 3 3 4 2 1 2 2 1 4 5 7 9 11 15 20 20 19 22 23 20 20 24 19 18 19 18
43 37 31 28 34 39 39 18 17 9 3 5 4 6 4 4 4 2 2 1 1 2 2 1 2 3 2 4 1 4 1 1 2 2 3 2 6 6 8 10 14 13 14 15 15 20 20 21 19 20 20 22 21 17
39 38 35 26 19 15 17 11 11 16 8 5 5 5 5 2 1 0 1 1 2 2 1 1 4 2 2 3 2 3 2 2 3 2 1 2 5 8 9 11 11 11 11 12 17 18 18 19 19 17 18 19 21 20
25 34 28 17 20 23 16 12 23 9 5 4 6 3 3 2 5 4 3 2 3 2 1 3 3 2 3 3 3 3 3 2 1 1 1 5 8 9 11 11 10 15 16 17 17 18 18 17 17 18 19 17 17 16
35 10 19 20 22 24 16 11 8 6 5 5 3 3 3 3 3 2 3 3 3 2 2 3 4 2 1 3 3 4 3 2 2 1 2 8 9 11 11 12 15 17 16 16 17 17 16 18 21 18 14 13 13 14
18 18 7 12 19 18 15 14 5 5 7 3 2 4 2 3 3 4 4 5 2 2 2 4 3 5 4 4 3 4 2 2 3 3 4 8 8 12 13 12 14 16 16 16 18 17 19 16 14 11 15 15 15 13
23 18 15 15 12 9 4 6 6 4 5 2 2 2 2 5 7 7 8 7 7 6 3 3 5 4 3 3 3 6 5 2 2 3 4 10 13 13 13 15 16 17 16 16 17 16 17 17 14 14 13 11 12 9
24 27 26 19 11 6 5 3 5 4 3 2 2 7 4 3 4 7 10 7 6 4 6 5 4 3 3 5 5 5 5 4 3 4 4 5 10 14 13 14 14 18 20 21 20 20 18 17 14 11 11 9 8 6
14 19 16 14 9 15 4 3 4 3 3 2 2 2 2 3 7 7 6 7 8 4 4 4 4 5 11 13 16 13 14 13 6 3 3 5 12 15 16 16 17 16 16 15 15 14 15 12 9 8 8 7 6 5
11 12 7 14 7 6 5 12 3 1 3 0 3 3 3 3 3 4 2 7 4 5 3 4 6 5 8 11 15 20 17 18 20 20 22 18 7 11 13 15 18 16 16 14 13 13 12 10 7 7 6 6 5 4
7 9 9 11 7 7 3 7 5 5 4 3 3 4 3 3 3 2 3 4 3 7 12 10 12 15 14 16 20 23 22 19 16 17 17 18 19 19 20 19 17 15 14 14 13 12 10 8 7 6 5 6 5 4
11 7 6 5 6 3 3 5 3 3 3 3 3 3 3 2 2 3 4 3 3 12 11 14 10 5 11 17 12 16 18 16 17 19 16 15 15 16 18 18 20 19 14 12 12 11 10 9 7 7 8 7 7 7
7 9 6 7 4 6 6 5 6 4 3 3 4 4 2 2 3 3 2 2 3 5 6 11 12 11 6 5 11 14 18 16 13 13 17 12 13 14 14 17 17 15 11 11 12 10 9 8 8 8 8 9 10 8
8 6 5 5 4 4 2 3 3 3 2 3 1 2 2 3 5 3 2 1 2 3 5 6 4 5 7 12 9 11 13 11 14 15 16 17 15 12 9 7 7 9 11 12 12 9 8 9 9 10 10 9 8 11
6 6 3 0 2 3 4 3 2 4 4 4 3 4 3 4 3 2 2 4 2 7 9 11 12 11 10 10 11 12 14 15 16 16 15 18 19 18 16 12 8 6 6 7 9 8 8 9 10 12 11 10 12 12
4 4 4 3 4 3 3 3 4 3 2 4 2 5 3 2 2 2 4 6 12 12 14 14 14 15 16 17 14 13 10 11 11 12 13 13 14 14 12 8 5 6 8 8 8 8 9 10 11 9 10 13 14 14
3 2 4 5 4 5 4 3 2 2 4 2 3 3 2 3 7 6 9 12 11 14 16 14 13 14 15 17 18 19 19 14 7 5 4 3 10 12 15 11 8 9 9 9 10 10 9 10 12 12 12 12 11 10
3 1 4 3 4 3 3 3 2 2 6 4 5 4 4 4 11 13 15 13 15 16 16 16 14 15 15 12 10 14 16 16 15 14 3 2 8 13 14 16 17 14 12 12 12 11 10 12 12 11 11 13 12 9
2 4 4 4 3 1 0 7 10 10 6 4 7 3 3 3 6 19 18 16 16 14 15 15 15 14 11 13 14 9 9 9 7 11 11 10 10 13 15 15 12 13 14 15 15 15 14 13 13 14 14 16 9 8
3 2 3 3 0 2 2 2 3 3 1 3 1 2 2 3 2 4 9 8 11 13 11 10 11 9 7 6 6 4 2 3 9 12 13 12 13 12 12 13 16 14 12 13 13 11 12 13 12 13 15 12 8 9
3 4 4 3 3 3 3 3 2 3 3 2 2 2 2 3 2 3 6 8 9 10 10 7 5 6 1 1 3 4 9 12 13 10 8 9 11 14 13 12 13 13 13 13 12 11 12 14 17 17 14 12 10 8

GFSWCAN_925_spd_039.txt.gz
Wind_Speed
42 43 43 42 41 40 40 41 42 43 43 41 42 43 40 38 45 30 26 20 6 1 4 5 5 7 6 13 12 4 6 1 2 4 4 4 3 6 4 5 7 7 7 4 3 3 6 4 5 8 6 3 6 5
33 34 35 35 35 34 34 35 36 37 38 40 40 39 37 36 38 32 9 29 14 1 3 12 21 28 12 6 11 5 4 7 6 4 2 2 2 2 4 3 2 2 7 6 8 6 3 2 5 1 4 8 5 7
29 30 31 31 31 30 31 31 32 35 36 39 38 34 32 31 33 32 23 19 6 3 5 4 7 15 16 23 23 7 2 1 3 3 4 2 3 4 4 5 4 3 4 4 4 2 1 1 2 4 3 5 6 5
28 29 30 31 29 28 26 26 28 34 39 38 37 34 35 34 37 31 26 17 16 1 3 6 9 7 8 12 22 21 8 7 4 2 3 3 3 3 3 4 5 5 7 6 2 1 3 4 3 7 11 11 13 12
24 24 25 22 24 25 25 19 22 28 34 39 34 33 34 36 35 34 18 21 20 4 2 4 11 16 9 9 21 25 8 6 4 2 2 3 3 3 3 2 2 5 7 6 6 12 5 5 7 8 12 10 10 15
24 24 23 24 23 23 23 20 20 24 22 33 37 41 39 35 36 20 2 11 16 17 2 3 5 5 12 4 12 8 6 4 3 4 3 0 3 3 4 3 3 2 1 3 5 12 6 13 8 6 12 10 11 13
22 23 24 23 23 22 21 23 27 27 30 30 34 41 41 38 25 6 3 4 29 10 2 4 5 3 4 1 1 3 3 3 2 2 2 2 3 3 3 3 3 4 7 12 17 17 9 3 6 10 14 16 19 19
22 23 23 22 22 22 23 25 27 29 31 30 29 29 32 32 28 11 3 19 34 10 1 3 4 5 6 2 2 2 3 2 4 2 1 2 2 2 1 2 1 9 13 10 6 7 12 17 14 14 18 19 15 13
24 25 25 25 25 24 24 25 26 28 29 30 31 29 20 4 3 5 10 24 8 3 4 3 3 3 3 3 2 1 2 2 1 1 1 3 2 3 1 5 5 9 4 12 14 17 17 18 16 14 14 12 15 10
27 27 27 25 25 25 24 22 25 24 25 28 22 4 3 10 16 12 7 4 1 2 0 3 2 1 2 2 2 3 2 2 3 3 2 3 3 3 4 1 7 9 16 17 18 11 14 14 14 14 12 10 10 9
29 29 28 26 25 25 23 24 25 27 26 10 3 3 11 31 9 3 1 3 2 0 2 2 1 3 1 3 3 2 4 3 5 3 3 3 3 4 2 4 7 9 10 3 10 12 10 16 16 15 13 15 16 15
38 33 31 29 27 26 28 33 31 26 15 15 10 16 6 4 3 3 1 1 3 4 1 1 1 2 1 2 1 3 3 2 2 1 3 1 1 5 6 7 7 8 11 13 17 16 17 18 19 18 17 16 16 17
29 34 37 36 36 31 24 26 30 14 24 2 5 5 4 4 3 3 4 1 2 2 2 2 2 1 2 3 3 3 4 2 0 2 2 1 2 6 7 9 10 11 15 16 16 21 23 22 21 23 18 17 19 18
29 29 29 32 30 28 30 32 30 16 4 5 4 5 2 2 3 2 2 2 2 1 2 2 2 3 2 4 2 4 2 2 3 2 3 0 3 6 8 9 13 12 13 15 15 19 20 21 19 18 20 21 21 17
30 28 28 27 29 31 37 41 31 5 5 3 3 5 4 2 2 1 1 1 3 2 2 2 3 2 3 4 3 2 3 3 2 1 2 1 6 10 10 9 12 12 11 12 16 17 19 20 19 18 17 19 21 21
29 25 22 23 26 27 24 22 10 4 3 4 6 3 2 3 5 4 4 3 4 3 2 2 3 3 4 2 3 4 3 4 3 2 2 4 7 8 10 10 10 13 15 16 17 19 19 18 18 17 17 19 20 20
23 8 15 23 23 16 12 6 5 5 5 5 4 4 3 2 4 4 4 4 4 1 2 2 5 5 2 4 3 4 3 4 4 2 2 4 8 9 11 10 14 16 16 17 17 16 17 19 22 19 15 14 15 16
12 13 5 5 7 24 22 14 4 5 7 3 3 6 6 6 4 6 6 7 3 2 3 4 3 6 5 4 3 3 4 4 3 3 4 5 8 11 13 11 15 15 14 15 16 17 18 17 14 12 14 15 17 13
24 15 15 17 10 10 4 8 7 5 6 3 3 3 4 4 7 7 7 7 7 7 3 4 6 4 3 3 4 6 7 5 3 4 5 9 10 10 12 13 15 15 16 16 18 15 15 15 13 14 14 13 11 11
26 29 26 16 11 5 5 3 6 4 3 2 4 7 4 4 4 5 10 8 7 4 6 5 4 3 2 4 5 5 6 7 3 5 7 8 14 17 15 13 14 19 20 20 19 19 18 17 16 14 12 9 9 7
15 21 18 15 10 15 5 3 4 3 3 3 1 2 3 3 10 8 7 7 8 4 4 5 4 5 11 12 16 13 14 14 8 6 4 6 14 18 18 19 19 19 17 16 15 16 17 13 11 11 9 8 5 6
11 12 6 14 7 6 5 11 3 1 3 1 2 2 3 3 3 4 4 8 5 5 4 4 6 6 8 12 17 21 18 18 20 21 22 19 8 11 14 16 18 17 18 16 15 14 13 11 9 8 7 6 4 2
7 9 9 11 7 6 2 6 5 5 4 3 3 4 3 3 2 2 4 5 4 8 9 9 14 16 15 16 20 23 23 20 17 18 18 18 20 20 21 22 20 17 15 16 14 13 13 9 8 7 5 4 2 1
12 7 6 5 6 2 3 5 3 3 4 4 3 3 3 2 2 4 4 3 4 11 11 14 11 6 11 17 13 17 18 16 18 20 18 16 16 18 19 19 21 20 15 11 11 11 10 9 7 7 7 6 5 5
7 9 6 7 4 6 6 5 5 5 3 3 4 3 2 2 3 3 2 2 3 5 5 10 12 11 5 5 11 15 19 17 14 14 18 14 14 13 15 18 19 18 15 14 13 10 10 9 9 9 9 8 7 9
8 5 5 3 3 4 1 3 3 3 3 4 3 3 3 3 4 3 2 1 2 3 4 4 4 4 7 12 8 11 13 12 17 19 18 21 19 15 11 9 8 10 13 14 12 11 10 9 10 12 11 9 9 10
6 5 3 3 2 3 4 3 3 5 4 4 3 4 3 5 3 2 2 5 2 7 12 14 12 10 8 8 10 13 15 15 18 17 17 19 19 17 15 13 11 9 10 10 10 9 10 10 10 10 9 10 12 13
3 4 4 5 5 3 4 4 4 3 2 3 3 6 3 3 2 2 3 5 12 14 16 17 18 19 20 20 14 12 13 12 13 12 10 12 14 17 13 9 8 7 8 7 8 10 11 10 9 11 12 13 12 11
4 3 4 6 5 5 5 3 2 3 4 2 3 2 2 3 6 6 8 9 10 13 13 13 13 13 15 16 17 18 16 9 6 5 5 3 9 12 16 16 15 13 11 12 12 12 11 11 11 13 12 11 12 11
3 2 4 3 4 4 3 2 1 2 7 4 5 4 3 4 10 11 13 14 17 16 14 13 11 11 12 10 12 13 13 14 16 13 3 3 9 12 14 14 13 16 16 15 15 15 13 13 14 14 14 14 14 12
2 3 4 3 3 0 2 8 13 11 6 4 7 3 3 3 6 16 14 12 12 11 12 12 12 11 11 12 10 6 8 7 9 10 9 10 11 11 11 11 13 15 14 13 14 13 13 13 12 13 13 14 12 7
3 3 4 3 0 2 1 1 2 3 2 3 1 2 2 3 2 2 6 5 8 10 7 5 6 5 4 5 6 7 7 9 12 13 12 9 8 11 12 12 13 13 14 13 12 12 12 12 14 17 15 13 12 11
3 3 3 3 3 3 3 3 3 3 3 2 1 2 1 3 3 2 4 5 8 8 8 8 5 4 2 3 6 8 10 10 9 8 7 7 10 12 15 16 15 14 14 13 12 12 11 12 14 13 13 12 12 11

GFSWCAN_925_spd_042.txt.gz
Wind_Speed
12 12 17 23 28 36 49 50 48 50 52 54 51 47 45 39 41 33 17 24 8 3 5 5 2 6 8 15 9 4 5 7 2 7 4 4 3 6 2 5 8 7 7 3 3 3 7 8 4 9 7 1 6 7
36 39 40 41 42 42 42 42 45 45 48 51 46 43 38 38 37 30 8 23 18 5 3 4 12 14 5 4 10 6 4 6 7 4 1 3 2 1 5 4 1 3 6 6 9 7 4 6 5 4 5 5 7 8
29 31 32 35 35 35 36 37 40 42 43 42 40 36 33 32 33 27 12 20 17 4 4 5 6 1 6 19 18 7 3 4 2 2 5 3 4 5 4 5 4 2 3 4 4 5 6 4 3 3 2 4 5 4
25 28 29 29 30 31 31 33 34 35 35 35 32 30 32 32 36 28 16 17 22 3 2 5 6 9 5 11 21 17 3 5 4 2 3 3 3 4 4 3 4 4 8 7 3 4 2 6 5 4 5 7 11 9
24 26 25 26 26 26 28 30 32 34 34 33 32 32 31 32 36 29 18 21 20 7 2 3 11 11 12 10 17 18 14 3 3 3 1 3 4 4 2 1 3 5 7 6 8 10 6 5 9 7 8 6 8 15
21 18 19 19 18 19 22 25 28 31 31 34 33 30 33 35 36 22 3 17 31 20 3 2 5 4 5 2 10 8 11 3 3 4 3 2 1 4 4 3 4 4 5 2 3 9 4 11 8 5 11 9 9 11
24 23 23 23 18 17 20 22 28 35 35 35 34 35 36 37 34 4 6 6 25 18 3 2 4 4 2 2 1 3 3 3 3 3 2 3 2 4 1 4 3 3 2 5 10 10 7 6 6 9 14 13 19 18
20 20 21 21 20 21 24 23 24 30 38 38 38 38 35 35 24 9 2 10 19 5 2 2 4 3 2 1 3 0 3 2 3 3 2 3 2 1 4 2 4 6 10 9 6 6 6 15 15 13 16 17 15 13
21 21 21 23 25 27 28 33 34 32 43 39 36 34 26 18 4 6 7 21 21 6 3 2 1 3 2 1 3 2 1 2 1 2 2 3 1 4 3 3 7 5 4 13 13 12 11 15 15 14 13 12 16 13
22 21 22 24 26 29 29 33 43 48 49 47 35 5 2 9 16 25 16 7 6 4 2 2 2 3 3 2 3 2 2 2 3 3 3 2 3 3 2 3 7 6 10 18 18 8 11 13 14 12 12 11 13 12
24 24 24 25 28 30 32 35 40 45 37 4 3 2 7 24 6 3 4 6 4 4 3 3 5 3 2 2 2 2 1 1 2 3 5 3 2 1 3 4 8 11 9 2 7 9 9 14 15 15 13 12 16 18
25 25 24 23 23 23 24 26 32 8 4 3 11 22 12 3 1 1 2 2 1 2 2 1 2 2 1 3 3 2 1 2 3 3 3 3 2 2 9 4 7 7 7 8 10 14 15 15 19 16 15 16 16 16
24 24 21 15 13 13 14 18 15 10 8 2 4 3 2 2 2 4 5 2 1 2 2 1 2 2 2 3 3 2 2 1 2 3 2 3 4 4 8 8 7 9 12 14 15 20 21 21 22 23 19 19 21 18
25 21 17 16 12 8 13 10 15 7 4 3 4 5 3 3 3 1 1 1 1 2 2 1 3 2 1 3 1 3 1 2 3 3 3 3 4 5 6 6 10 11 12 14 14 16 17 19 19 19 21 22 22 20
30 25 20 17 15 12 11 11 12 13 5 4 4 5 4 2 2 2 1 1 2 2 1 1 3 3 3 3 2 2 2 3 4 2 3 3 3 6 7 8 9 10 10 11 14 13 17 19 19 18 17 18 22 24
31 25 13 17 17 19 18 12 7 6 3 5 8 5 3 2 7 5 7 4 4 3 1 2 3 3 5 3 4 5 3 4 3 4 4 2 4 6 7 7 9 11 12 14 16 18 19 18 18 18 19 19 20 21
17 6 22 24 24 23 19 8 2 5 4 5 4 6 5 3 4 4 4 6 5 3 3 3 6 4 3 4 4 5 4 4 8 4 2 2 5 7 8 9 11 14 15 17 18 17 17 18 21 20 16 14 16 16
18 23 31 34 34 21 8 6 3 5 7 5 4 6 7 6 6 7 7 8 4 3 3 4 3 7 5 4 3 4 4 8 5 4 5 5 6 7 10 10 14 16 16 17 17 16 17 16 15 14 17 15 17 14
21 26 35 40 20 7 3 5 6 5 6 3 3 4 4 4 9 7 8 8 7 7 4 4 6 4 3 3 4 7 7 5 4 5 8 16 16 14 15 17 17 17 17 16 16 15 16 16 15 15 15 14 13 11
32 28 22 29 19 3 5 3 5 5 4 2 2 8 5 5 6 9 12 10 8 4 6 5 4 4 3 4 5 5 6 6 4 6 8 9 19 22 21 18 17 19 20 20 19 18 18 19 18 16 14 12 11 8
22 19 15 18 8 13 5 3 4 3 3 3 1 2 3 6 11 10 9 8 10 4 5 4 5 5 11 11 15 13 14 15 10 7 6 7 16 19 19 20 21 21 18 16 15 17 19 16 14 14 13 11 8 6
8 11 6 12 6 5 5 11 3 1 3 1 3 3 3 3 3 5 4 7 5 5 4 5 7 6 8 12 16 21 19 21 23 22 23 19 9 13 16 18 19 18 19 17 17 16 16 15 13 12 11 8 5 4
6 7 8 10 7 6 2 7 5 5 4 2 3 4 3 3 2 2 4 4 4 8 12 8 11 14 14 16 19 24 22 20 18 18 18 19 20 20 21 22 21 17 15 17 17 16 15 12 12 11 9 7 6 5
10 7 6 5 6 2 3 5 3 3 4 4 3 3 3 2 2 4 4 3 4 11 10 13 11 6 11 17 13 17 18 16 18 21 18 16 17 18 19 19 21 22 16 12 14 14 13 13 12 12 11 9 9 9
7 9 6 7 4 6 6 5 5 5 4 3 3 3 3 3 3 3 2 2 2 4 4 9 11 10 5 5 11 14 18 16 14 15 19 15 13 13 15 18 21 21 19 19 18 15 14 12 12 12 10 9 10 11
8 6 5 2 4 4 1 4 4 2 3 4 3 2 3 3 5 3 2 1 1 3 3 4 3 4 6 10 6 9 12 13 17 19 16 20 19 17 13 11 10 12 14 13 12 11 11 11 10 11 12 10 11 13
6 4 3 3 2 3 4 3 2 4 5 4 2 4 4 5 2 2 2 5 3 8 11 12 11 9 6 7 11 14 15 16 19 18 16 18 18 17 16 14 12 9 11 9 8 9 11 11 11 10 11 13 14 13
3 4 5 5 5 3 4 3 4 3 2 2 3 5 4 3 2 2 3 8 12 14 17 17 18 18 15 12 10 11 12 12 10 8 9 13 16 15 14 12 9 9 9 9 10 11 12 13 13 9 12 14 13 12
4 3 4 6 5 5 5 3 3 3 4 2 3 2 2 2 4 4 6 8 10 11 12 13 12 12 14 14 15 15 12 9 4 5 4 2 7 11 13 12 11 14 15 14 12 11 9 11 12 13 13 14 15 15
3 2 5 4 5 5 3 2 2 2 7 4 4 3 3 4 9 8 11 12 13 14 12 10 9 8 9 9 9 10 11 12 13 11 2 2 8 11 12 11 11 14 13 13 14 14 13 12 12 11 13 13 14 14
1 3 4 4 3 1 2 6 11 8 5 4 6 3 2 2 5 11 10 10 9 9 8 9 8 8 8 8 6 4 6 7 10 9 8 7 7 8 10 11 12 13 14 14 13 13 13 12 13 15 16 15 14 12
4 4 4 4 2 1 1 2 2 3 2 3 1 2 3 3 2 1 2 2 3 5 4 2 2 2 3 4 6 6 6 8 9 8 6 5 8 9 13 14 14 14 13 12 12 13 13 11 13 14 15 15 14 13
3 3 3 4 3 1 2 3 3 2 3 2 1 2 2 4 4 4 4 3 4 4 5 4 3 4 4 4 5 6 8 8 8 8 6 6 8 12 14 14 13 14 13 11 11 12 12 12 12 12 13 13 14 14